UAL31 EDDM-KEWR

Flight info

Callsign UAL31
Flight time 8h 4m
Altitude 36000
Route GIVMI Y101 INBED DCT REKDI DCT LOHRE DCT ADKUV DCT LENDO DCT DENUT L610 KOPUL Q60 OKSAW DCT TEWXI DCT LIPGO DCT KLY DCT INKUR DCT OK DCT RESNO/M083F380 DCT 56N020W 56N030W 56N040W 55N050W DCT LOMSI/N0473F400 N668A TAFFY KJOHN HANAA FLOSI4
Aircraft B772/H-SDE3FGHIJ4J5J7M1M3P2RWXYZ/LB1D1

Departure

Time 2026-05-05 15:32
Airport Munich Airport (EDDM)

Arrival

Time 2026-05-05 23:36
Airport Newark Liberty International Airport (KEWR)
Time Latitude Longitude Altitude Speed Heading
2026-05-05 14:48 48.35891 11.79220 1476 ft 0 kts 263°
2026-05-05 15:16 48.35891 11.79224 1490 ft 2 kts 263°
2026-05-05 15:16 48.35894 11.79263 1482 ft 4 kts 263°
2026-05-05 15:16 48.35897 11.79299 1474 ft 1 kts 263°
2026-05-05 15:16 48.35898 11.79334 1479 ft 4 kts 280°
2026-05-05 15:17 48.35891 11.79366 1481 ft 4 kts 315°
2026-05-05 15:17 48.35874 11.79381 1474 ft 3 kts 353°
2026-05-05 15:17 48.35848 11.79386 1474 ft 3 kts 353°
2026-05-05 15:17 48.35844 11.79386 1474 ft 0 kts 353°
2026-05-05 15:21 48.35856 11.79384 1474 ft 5 kts 353°
2026-05-05 15:21 48.35890 11.79375 1474 ft 5 kts 344°
2026-05-05 15:21 48.35922 11.79354 1477 ft 5 kts 336°
2026-05-05 15:22 48.35957 11.79342 1487 ft 6 kts 353°
2026-05-05 15:22 48.35995 11.79334 1480 ft 6 kts 352°
2026-05-05 15:22 48.36035 11.79326 1475 ft 7 kts 353°
2026-05-05 15:22 48.36102 11.79314 1479 ft 10 kts 353°
2026-05-05 15:23 48.36149 11.79305 1479 ft 10 kts 353°
2026-05-05 15:23 48.36202 11.79327 1477 ft 4 kts 52°
2026-05-05 15:23 48.36208 11.79357 1482 ft 4 kts 83°
2026-05-05 15:23 48.36210 11.79427 1480 ft 6 kts 86°
2026-05-05 15:24 48.36215 11.79489 1482 ft 6 kts 84°
2026-05-05 15:24 48.36219 11.79541 1484 ft 9 kts 83°
2026-05-05 15:24 48.36228 11.79655 1484 ft 12 kts 83°
2026-05-05 15:24 48.36237 11.79782 1477 ft 12 kts 84°
2026-05-05 15:25 48.36247 11.79908 1485 ft 12 kts 83°
2026-05-05 15:25 48.36257 11.80035 1490 ft 12 kts 83°
2026-05-05 15:25 48.36267 11.80161 1478 ft 12 kts 83°
2026-05-05 15:25 48.36277 11.80288 1480 ft 12 kts 83°
2026-05-05 15:26 48.36286 11.80414 1486 ft 12 kts 83°
2026-05-05 15:26 48.36296 11.80540 1483 ft 12 kts 82°
2026-05-05 15:26 48.36306 11.80665 1483 ft 12 kts 83°
2026-05-05 15:26 48.36315 11.80791 1482 ft 12 kts 83°
2026-05-05 15:27 48.36325 11.80917 1484 ft 12 kts 83°
2026-05-05 15:27 48.36335 11.81044 1490 ft 12 kts 83°
2026-05-05 15:27 48.36345 11.81170 1487 ft 12 kts 83°
2026-05-05 15:27 48.36354 11.81296 1480 ft 12 kts 83°
2026-05-05 15:28 48.36364 11.81423 1479 ft 12 kts 83°
2026-05-05 15:28 48.36374 11.81549 1481 ft 12 kts 83°
2026-05-05 15:28 48.36384 11.81675 1484 ft 12 kts 83°
2026-05-05 15:28 48.36393 11.81802 1479 ft 12 kts 84°
2026-05-05 15:29 48.36403 11.81928 1490 ft 12 kts 84°
2026-05-05 15:29 48.36419 11.81995 1474 ft 4 kts 40°
2026-05-05 15:29 48.36475 11.82000 1477 ft 12 kts 352°
2026-05-05 15:29 48.36557 11.81985 1482 ft 12 kts 353°
2026-05-05 15:30 48.36633 11.81971 1477 ft 9 kts 353°
2026-05-05 15:30 48.36671 11.81948 1474 ft 5 kts 313°
2026-05-05 15:30 48.36674 11.81911 1478 ft 4 kts 260°
2026-05-05 15:30 48.36670 11.81868 1482 ft 4 kts 262°
2026-05-05 15:31 48.36660 11.81743 1485 ft 24 kts 262°
2026-05-05 15:31 48.36618 11.81207 1490 ft 82 kts 263°
2026-05-05 15:31 48.36529 11.80052 1484 ft 139 kts 263°
2026-05-05 15:31 48.36410 11.78435 1735 ft 166 kts 264°
2026-05-05 15:32 48.36302 11.76664 2463 ft 173 kts 266°
2026-05-05 15:32 48.36179 11.74826 2995 ft 186 kts 265°
2026-05-05 15:32 48.36013 11.72783 3223 ft 207 kts 264°
2026-05-05 15:32 48.35836 11.70518 3596 ft 226 kts 265°
2026-05-05 15:33 48.35787 11.68106 4118 ft 241 kts 283°
2026-05-05 15:33 48.36534 11.65788 4621 ft 252 kts 302°
2026-05-05 15:33 48.37477 11.63546 5334 ft 255 kts 301°
2026-05-05 15:33 48.38413 11.61285 5902 ft 262 kts 301°
2026-05-05 15:34 48.39390 11.58912 6372 ft 272 kts 300°
2026-05-05 15:34 48.40394 11.56456 6924 ft 279 kts 300°
2026-05-05 15:34 48.41414 11.53961 7586 ft 281 kts 300°
2026-05-05 15:34 48.42437 11.51446 8274 ft 283 kts 299°
2026-05-05 15:35 48.43475 11.48890 8943 ft 287 kts 298°
2026-05-05 15:35 48.44523 11.46301 9602 ft 291 kts 298°
2026-05-05 15:35 48.45767 11.43891 10081 ft 301 kts 319°
2026-05-05 15:35 48.47716 11.42480 10244 ft 323 kts 345°
2026-05-05 15:36 48.49986 11.41847 10430 ft 343 kts 349°
2026-05-05 15:36 48.52387 11.41242 10596 ft 365 kts 349°
2026-05-05 15:36 48.54926 11.40600 11132 ft 374 kts 349°
2026-05-05 15:36 48.57506 11.39929 11847 ft 377 kts 348°
2026-05-05 15:37 48.60107 11.39232 12593 ft 381 kts 348°
2026-05-05 15:37 48.62742 11.38512 13247 ft 388 kts 348°
2026-05-05 15:37 48.65412 11.37779 13907 ft 392 kts 348°
2026-05-05 15:37 48.68115 11.37032 14545 ft 396 kts 348°
2026-05-05 15:38 48.70764 11.35946 14999 ft 398 kts 333°
2026-05-05 15:38 48.73105 11.33737 15424 ft 399 kts 322°
2026-05-05 15:38 48.75378 11.31264 15942 ft 406 kts 322°
2026-05-05 15:38 48.77708 11.28808 16574 ft 411 kts 323°
2026-05-05 15:39 48.80092 11.26369 17256 ft 415 kts 324°
2026-05-05 15:39 48.82481 11.23973 17938 ft 419 kts 326°
2026-05-05 15:39 48.85055 11.21832 18483 ft 425 kts 333°
2026-05-05 15:39 48.87803 11.20112 19011 ft 431 kts 339°
2026-05-05 15:40 48.90661 11.18674 19565 ft 434 kts 341°
2026-05-05 15:40 48.93551 11.17259 20086 ft 438 kts 341°
2026-05-05 15:40 48.96455 11.15828 20598 ft 441 kts 341°
2026-05-05 15:40 48.99388 11.14363 21087 ft 444 kts 340°
2026-05-05 15:41 49.02338 11.12870 21581 ft 448 kts 340°
2026-05-05 15:41 49.05304 11.11357 22068 ft 451 kts 340°
2026-05-05 15:41 49.08293 11.09829 22572 ft 455 kts 340°
2026-05-05 15:41 49.11306 11.08288 23051 ft 458 kts 340°
2026-05-05 15:42 49.14302 11.06759 23507 ft 461 kts 340°
2026-05-05 15:42 49.17362 11.05196 23914 ft 465 kts 340°
2026-05-05 15:42 49.20440 11.03621 24348 ft 468 kts 340°
2026-05-05 15:42 49.23536 11.02029 24796 ft 471 kts 340°
2026-05-05 15:43 49.26645 11.00427 25223 ft 473 kts 340°
2026-05-05 15:43 49.29774 10.98812 25660 ft 475 kts 340°
2026-05-05 15:43 49.32920 10.97188 26054 ft 479 kts 340°
2026-05-05 15:43 49.36017 10.95323 26382 ft 480 kts 332°
2026-05-05 15:44 49.38865 10.92644 26720 ft 481 kts 321°
2026-05-05 15:44 49.41401 10.89324 27098 ft 480 kts 312°
2026-05-05 15:44 49.43572 10.85443 27483 ft 479 kts 306°
2026-05-05 15:44 49.45642 10.81408 27848 ft 481 kts 305°
2026-05-05 15:45 49.47716 10.77340 28229 ft 484 kts 305°
2026-05-05 15:45 49.49809 10.73269 28555 ft 487 kts 306°
2026-05-05 15:45 49.51904 10.69232 28881 ft 490 kts 306°
2026-05-05 15:45 49.54048 10.65134 29209 ft 492 kts 306°
2026-05-05 15:46 49.56202 10.61027 29527 ft 494 kts 306°
2026-05-05 15:46 49.58367 10.56897 29837 ft 496 kts 306°
2026-05-05 15:46 49.60538 10.52746 30154 ft 497 kts 306°
2026-05-05 15:46 49.62710 10.48586 30451 ft 498 kts 306°
2026-05-05 15:47 49.64853 10.44469 30705 ft 499 kts 305°
2026-05-05 15:47 49.66271 10.41597 30858 ft 498 kts 302°
2026-05-05 15:47 49.68893 10.35772 31150 ft 499 kts 301°
2026-05-05 15:47 49.70833 10.31333 31421 ft 498 kts 301°
2026-05-05 15:48 49.72759 10.26897 31748 ft 497 kts 301°
2026-05-05 15:48 49.74684 10.22468 32065 ft 495 kts 300°
2026-05-05 15:48 49.76610 10.18054 32388 ft 494 kts 301°
2026-05-05 15:48 49.78532 10.13657 32686 ft 493 kts 300°
2026-05-05 15:49 49.80457 10.09261 33016 ft 492 kts 300°
2026-05-05 15:49 49.82351 10.04934 33325 ft 491 kts 300°
2026-05-05 15:49 49.84263 10.00557 33637 ft 490 kts 300°
2026-05-05 15:49 49.86174 9.96176 33906 ft 489 kts 300°
2026-05-05 15:50 49.88078 9.91803 34149 ft 488 kts 300°
2026-05-05 15:50 49.89958 9.87476 34399 ft 488 kts 300°
2026-05-05 15:50 49.91867 9.83073 34619 ft 487 kts 300°
2026-05-05 15:50 49.93759 9.78705 34866 ft 487 kts 300°
2026-05-05 15:51 49.95622 9.74395 35142 ft 486 kts 300°
2026-05-05 15:51 49.97501 9.70040 35394 ft 485 kts 300°
2026-05-05 15:51 49.99373 9.65695 35604 ft 484 kts 300°
2026-05-05 15:51 50.01249 9.61333 35737 ft 485 kts 300°
2026-05-05 15:52 50.03125 9.56966 35783 ft 486 kts 300°
2026-05-05 15:52 50.06446 9.47963 35821 ft 479 kts 290°
2026-05-05 15:53 50.08630 9.38253 35828 ft 473 kts 281°
2026-05-05 15:53 50.10332 9.28354 35811 ft 473 kts 281°
2026-05-05 15:54 50.12022 9.18452 35824 ft 473 kts 281°
2026-05-05 15:54 50.13723 9.08608 35819 ft 473 kts 281°
2026-05-05 15:55 50.15271 8.99678 35815 ft 474 kts 281°
2026-05-05 15:55 50.16975 8.89821 35822 ft 474 kts 281°
2026-05-05 15:56 50.18684 8.79879 35823 ft 475 kts 281°
2026-05-05 15:56 50.20385 8.69915 35835 ft 475 kts 281°
2026-05-05 15:57 50.22070 8.59984 35823 ft 476 kts 281°
2026-05-05 15:57 50.23762 8.49952 35829 ft 477 kts 281°
2026-05-05 15:58 50.25446 8.39914 35836 ft 477 kts 281°
2026-05-05 15:58 50.27122 8.29867 35833 ft 477 kts 281°
2026-05-05 15:59 50.28776 8.19893 35833 ft 477 kts 281°
2026-05-05 15:59 50.30433 8.09843 35821 ft 477 kts 281°
2026-05-05 16:00 50.32078 7.99798 35825 ft 477 kts 281°
2026-05-05 16:00 50.33719 7.89721 35802 ft 478 kts 281°
2026-05-05 16:01 50.35353 7.79629 35809 ft 478 kts 280°
2026-05-05 16:01 50.36977 7.69543 35818 ft 478 kts 280°
2026-05-05 16:02 50.38582 7.59503 35825 ft 478 kts 280°
2026-05-05 16:02 50.40192 7.49373 35809 ft 479 kts 280°
2026-05-05 16:03 50.41796 7.39224 35818 ft 480 kts 280°
2026-05-05 16:03 50.43398 7.29018 35824 ft 482 kts 280°
2026-05-05 16:04 50.44983 7.18865 35817 ft 482 kts 280°
2026-05-05 16:04 50.46568 7.08645 35815 ft 482 kts 280°
2026-05-05 16:05 50.48146 6.98402 35823 ft 482 kts 279°
2026-05-05 16:05 50.49707 6.88219 35816 ft 482 kts 279°
2026-05-05 16:06 50.51436 6.78039 35834 ft 485 kts 285°
2026-05-05 16:06 50.53679 6.68025 35837 ft 485 kts 286°
2026-05-05 16:07 50.55938 6.58012 35837 ft 487 kts 285°
2026-05-05 16:07 50.58156 6.47956 35826 ft 487 kts 285°
2026-05-05 16:08 50.60353 6.37881 35822 ft 485 kts 285°
2026-05-05 16:08 50.62525 6.27896 35849 ft 483 kts 285°
2026-05-05 16:09 50.64866 6.17955 35851 ft 483 kts 288°
2026-05-05 16:09 50.67329 6.08171 35841 ft 483 kts 288°
2026-05-05 16:10 50.69782 5.98335 35844 ft 482 kts 287°
2026-05-05 16:10 50.72194 5.88482 35845 ft 481 kts 287°
2026-05-05 16:11 50.74580 5.78638 35853 ft 480 kts 287°
2026-05-05 16:12 50.79303 5.59015 35852 ft 479 kts 287°
2026-05-05 16:13 50.85171 5.34404 35862 ft 478 kts 287°
2026-05-05 16:13 50.87489 5.24600 35850 ft 478 kts 287°
2026-05-05 16:14 50.92125 5.04865 35878 ft 477 kts 287°
2026-05-05 16:15 50.96725 4.85106 35877 ft 479 kts 287°
2026-05-05 16:16 51.01303 4.65254 35884 ft 478 kts 287°
2026-05-05 16:17 51.04697 4.50417 35890 ft 478 kts 287°
2026-05-05 16:18 51.08088 4.35491 35884 ft 478 kts 287°
2026-05-05 16:19 51.11443 4.20615 35884 ft 478 kts 287°
2026-05-05 16:19 51.14786 4.05690 35879 ft 477 kts 286°
2026-05-05 16:20 51.19203 3.85799 35876 ft 477 kts 286°
2026-05-05 16:22 51.24365 3.60754 35881 ft 472 kts 279°
2026-05-05 16:23 51.26994 3.40218 35889 ft 472 kts 279°
2026-05-05 16:23 51.28979 3.24886 35898 ft 472 kts 278°
2026-05-05 16:24 51.30287 3.14613 35905 ft 472 kts 278°
2026-05-05 16:25 51.32237 2.99196 35908 ft 471 kts 278°
2026-05-05 16:25 51.34160 2.83830 35912 ft 471 kts 278°
2026-05-05 16:26 51.36704 2.63252 35913 ft 471 kts 278°
2026-05-05 16:27 51.37964 2.52957 35908 ft 471 kts 278°
2026-05-05 16:27 51.39207 2.42731 35912 ft 471 kts 278°
2026-05-05 16:28 51.40450 2.32433 35918 ft 471 kts 278°
2026-05-05 16:28 51.41689 2.22135 35921 ft 471 kts 278°
2026-05-05 16:29 51.42952 2.11838 35922 ft 470 kts 279°
2026-05-05 16:29 51.44199 2.01600 35919 ft 470 kts 278°
2026-05-05 16:30 51.45421 1.91294 35921 ft 470 kts 278°
2026-05-05 16:30 51.46619 1.80985 35925 ft 470 kts 278°
2026-05-05 16:31 51.47813 1.70663 35928 ft 471 kts 278°
2026-05-05 16:31 51.49001 1.60319 35934 ft 471 kts 278°
2026-05-05 16:32 51.50167 1.50052 35933 ft 472 kts 278°
2026-05-05 16:32 51.51337 1.39667 35939 ft 472 kts 278°
2026-05-05 16:33 51.52497 1.29290 35938 ft 472 kts 278°
2026-05-05 16:33 51.53649 1.18913 35935 ft 472 kts 278°
2026-05-05 16:34 51.54615 1.08564 35936 ft 471 kts 274°
2026-05-05 16:34 51.55270 0.98104 35938 ft 470 kts 274°
2026-05-05 16:35 51.55896 0.87639 35941 ft 470 kts 274°
2026-05-05 16:35 51.56535 0.77167 35943 ft 470 kts 274°
2026-05-05 16:36 51.57178 0.66696 35941 ft 470 kts 274°
2026-05-05 16:36 51.57813 0.56228 35940 ft 470 kts 274°
2026-05-05 16:37 51.58434 0.45832 35939 ft 470 kts 273°
2026-05-05 16:37 51.59049 0.35357 35938 ft 470 kts 273°
2026-05-05 16:38 51.59653 0.24899 35940 ft 470 kts 273°
2026-05-05 16:38 51.60148 0.16203 35940 ft 470 kts 273°
2026-05-05 16:39 51.60831 0.04023 35938 ft 470 kts 273°
2026-05-05 16:39 51.61313 -0.04691 35938 ft 470 kts 273°
2026-05-05 16:40 51.61891 -0.15162 36014 ft 470 kts 274°
2026-05-05 16:40 51.62532 -0.25637 36024 ft 471 kts 274°
2026-05-05 16:41 51.63185 -0.36130 35942 ft 471 kts 274°
2026-05-05 16:41 51.63817 -0.46553 35938 ft 471 kts 274°
2026-05-05 16:42 51.64438 -0.57061 35947 ft 472 kts 274°
2026-05-05 16:42 51.65049 -0.67586 35935 ft 472 kts 274°
2026-05-05 16:43 51.65652 -0.78146 35961 ft 473 kts 274°
2026-05-05 16:43 51.66242 -0.88632 35962 ft 473 kts 273°
2026-05-05 16:44 51.66828 -0.99209 35968 ft 474 kts 273°
2026-05-05 16:44 51.67404 -1.09794 35966 ft 474 kts 273°
2026-05-05 16:45 51.67968 -1.20327 35968 ft 475 kts 273°
2026-05-05 16:45 51.68527 -1.30951 35965 ft 475 kts 273°
2026-05-05 16:46 51.69076 -1.41566 35966 ft 476 kts 273°
2026-05-05 16:46 51.69618 -1.52203 35969 ft 476 kts 273°
2026-05-05 16:47 51.70204 -1.62769 35964 ft 477 kts 277°
2026-05-05 16:47 51.71896 -1.73139 35978 ft 480 kts 289°
2026-05-05 16:48 51.74760 -1.82876 35965 ft 482 kts 296°
2026-05-05 16:48 51.77840 -1.92503 35978 ft 482 kts 295°
2026-05-05 16:49 51.80820 -2.02127 35995 ft 483 kts 296°
2026-05-05 16:49 51.84239 -2.11472 36001 ft 483 kts 301°
2026-05-05 16:50 51.87837 -2.20689 35996 ft 484 kts 301°
2026-05-05 16:50 51.91398 -2.29861 35994 ft 484 kts 301°
2026-05-05 16:51 51.94950 -2.39132 35996 ft 485 kts 301°
2026-05-05 16:51 51.98494 -2.48453 35993 ft 485 kts 301°
2026-05-05 16:52 52.02027 -2.57783 35995 ft 486 kts 301°
2026-05-05 16:52 52.05562 -2.67148 35992 ft 486 kts 301°
2026-05-05 16:53 52.09068 -2.76469 35996 ft 487 kts 301°
2026-05-05 16:53 52.12593 -2.85874 35994 ft 487 kts 301°
2026-05-05 16:54 52.16110 -2.95293 35994 ft 487 kts 301°
2026-05-05 16:54 52.19620 -3.04728 36002 ft 486 kts 301°
2026-05-05 16:55 52.23099 -3.14114 36000 ft 486 kts 301°
2026-05-05 16:55 52.26586 -3.23557 36004 ft 486 kts 301°
2026-05-05 16:56 52.30067 -3.33019 36005 ft 485 kts 301°
2026-05-05 16:56 52.33535 -3.42483 36007 ft 485 kts 301°
2026-05-05 16:57 52.36996 -3.51959 36008 ft 485 kts 301°
2026-05-05 16:57 52.40447 -3.61448 36007 ft 485 kts 301°
2026-05-05 16:58 52.43866 -3.70881 36009 ft 485 kts 301°
2026-05-05 16:58 52.47307 -3.80414 36013 ft 486 kts 302°
2026-05-05 16:59 52.50748 -3.89979 36015 ft 486 kts 302°
2026-05-05 16:59 52.54180 -3.99559 36016 ft 487 kts 302°
2026-05-05 17:00 52.57584 -4.09095 36021 ft 487 kts 302°
2026-05-05 17:00 52.61007 -4.18721 36024 ft 488 kts 302°
2026-05-05 17:01 52.64428 -4.28378 36025 ft 488 kts 302°
2026-05-05 17:01 52.67820 -4.37992 36030 ft 488 kts 302°
2026-05-05 17:02 52.71229 -4.47690 36032 ft 489 kts 302°
2026-05-05 17:02 52.74631 -4.57401 36033 ft 489 kts 302°
2026-05-05 17:03 52.78022 -4.67128 36041 ft 488 kts 302°
2026-05-05 17:03 52.81384 -4.76805 36044 ft 488 kts 302°
2026-05-05 17:04 52.84761 -4.86566 36042 ft 488 kts 302°
2026-05-05 17:04 52.88122 -4.96316 36046 ft 488 kts 301°
2026-05-05 17:05 52.91453 -5.06017 36044 ft 487 kts 301°
2026-05-05 17:05 52.94796 -5.15791 36052 ft 486 kts 301°
2026-05-05 17:06 52.98123 -5.25558 36054 ft 486 kts 301°
2026-05-05 17:06 53.01437 -5.35327 36052 ft 485 kts 301°
2026-05-05 17:07 53.04720 -5.45039 36058 ft 485 kts 301°
2026-05-05 17:07 53.08022 -5.54803 36057 ft 484 kts 301°
2026-05-05 17:08 53.11354 -5.64528 36061 ft 483 kts 301°
2026-05-05 17:08 53.14675 -5.74244 36062 ft 482 kts 301°
2026-05-05 17:09 53.17953 -5.83896 36063 ft 481 kts 301°
2026-05-05 17:09 53.21242 -5.93628 36062 ft 480 kts 301°
2026-05-05 17:10 53.24515 -6.03345 36068 ft 479 kts 301°
2026-05-05 17:10 53.27662 -6.13070 36076 ft 479 kts 296°
2026-05-05 17:11 53.30340 -6.23260 36079 ft 479 kts 295°
2026-05-05 17:11 53.32960 -6.33513 36072 ft 478 kts 295°
2026-05-05 17:12 53.35569 -6.43661 36074 ft 477 kts 295°
2026-05-05 17:12 53.38200 -6.53856 36077 ft 476 kts 295°
2026-05-05 17:13 53.40823 -6.64051 36071 ft 476 kts 295°
2026-05-05 17:13 53.43430 -6.74233 36072 ft 475 kts 294°
2026-05-05 17:14 53.46024 -6.84414 36070 ft 474 kts 294°
2026-05-05 17:14 53.48600 -6.94573 36065 ft 473 kts 294°
2026-05-05 17:15 53.51148 -7.04668 36068 ft 472 kts 294°
2026-05-05 17:15 53.53698 -7.14814 36067 ft 471 kts 294°
2026-05-05 17:16 53.56235 -7.24957 36066 ft 469 kts 294°
2026-05-05 17:16 53.58755 -7.35072 36066 ft 468 kts 294°
2026-05-05 17:17 53.61289 -7.45190 36066 ft 467 kts 294°
2026-05-05 17:17 53.63848 -7.55166 36072 ft 467 kts 294°
2026-05-05 17:18 53.66420 -7.65219 36070 ft 466 kts 294°
2026-05-05 17:18 53.68972 -7.75274 36072 ft 466 kts 294°
2026-05-05 17:19 53.71512 -7.85345 36069 ft 465 kts 294°
2026-05-05 17:19 53.74021 -7.95345 36072 ft 465 kts 294°
2026-05-05 17:20 53.76537 -8.05411 36074 ft 465 kts 293°
2026-05-05 17:20 53.79046 -8.15497 36081 ft 464 kts 293°
2026-05-05 17:21 53.81540 -8.25569 36080 ft 464 kts 293°
2026-05-05 17:22 53.85249 -8.40638 36092 ft 464 kts 293°
2026-05-05 17:22 53.87723 -8.50742 36105 ft 463 kts 292°
2026-05-05 17:23 53.90186 -8.60845 36098 ft 463 kts 292°
2026-05-05 17:23 53.92613 -8.70945 36109 ft 463 kts 290°
2026-05-05 17:24 53.94742 -8.81272 36146 ft 464 kts 289°
2026-05-05 17:24 53.95764 -8.86459 36376 ft 463 kts 288°
2026-05-05 17:24 53.96766 -8.91569 36657 ft 461 kts 288°
2026-05-05 17:24 53.97780 -8.96729 36895 ft 461 kts 289°
2026-05-05 17:25 53.98797 -9.01895 37106 ft 461 kts 289°
2026-05-05 17:25 53.99484 -9.05380 37248 ft 460 kts 289°
2026-05-05 17:25 54.00828 -9.12189 37527 ft 460 kts 289°
2026-05-05 17:25 54.01849 -9.17361 37731 ft 460 kts 288°
2026-05-05 17:26 54.02864 -9.22518 37910 ft 460 kts 288°
2026-05-05 17:26 54.03879 -9.27687 38030 ft 460 kts 288°
2026-05-05 17:26 54.04890 -9.32848 38083 ft 460 kts 288°
2026-05-05 17:27 54.06895 -9.43135 38106 ft 461 kts 288°
2026-05-05 17:27 54.08906 -9.53503 38119 ft 460 kts 288°
2026-05-05 17:28 54.10904 -9.63863 38119 ft 460 kts 288°
2026-05-05 17:28 54.12892 -9.74227 38125 ft 460 kts 288°
2026-05-05 17:29 54.14870 -9.84595 38112 ft 460 kts 288°
2026-05-05 17:29 54.16825 -9.94900 38119 ft 459 kts 288°
2026-05-05 17:30 54.18785 -10.05287 38126 ft 459 kts 288°
2026-05-05 17:30 54.20730 -10.15655 38126 ft 459 kts 287°
2026-05-05 17:31 54.22669 -10.26043 38129 ft 458 kts 287°
2026-05-05 17:31 54.24581 -10.36348 38135 ft 458 kts 287°
2026-05-05 17:32 54.26501 -10.46751 38130 ft 458 kts 287°
2026-05-05 17:32 54.28409 -10.57146 38141 ft 457 kts 287°
2026-05-05 17:33 54.30295 -10.67477 38133 ft 457 kts 287°
2026-05-05 17:33 54.31238 -10.72668 38275 ft 457 kts 287°
2026-05-05 17:33 54.32183 -10.77883 38200 ft 458 kts 287°
2026-05-05 17:34 54.34069 -10.88333 38148 ft 458 kts 287°
2026-05-05 17:34 54.35932 -10.98713 38139 ft 458 kts 287°
2026-05-05 17:35 54.37791 -11.09136 38140 ft 457 kts 286°
2026-05-05 17:35 54.39639 -11.19554 38143 ft 456 kts 286°
2026-05-05 17:36 54.41476 -11.29968 38143 ft 455 kts 286°
2026-05-05 17:36 54.43291 -11.40322 38146 ft 455 kts 286°
2026-05-05 17:37 54.45107 -11.50735 38147 ft 455 kts 286°
2026-05-05 17:37 54.46913 -11.61160 38147 ft 455 kts 286°
2026-05-05 17:38 54.48710 -11.71586 38150 ft 455 kts 286°
2026-05-05 17:38 54.50501 -11.82043 38150 ft 456 kts 286°
2026-05-05 17:39 54.52272 -11.92444 38153 ft 456 kts 286°
2026-05-05 17:39 54.54048 -12.02935 38154 ft 457 kts 286°
2026-05-05 17:40 54.55820 -12.13462 38158 ft 457 kts 285°
2026-05-05 17:40 54.57580 -12.23986 38158 ft 457 kts 285°
2026-05-05 17:41 54.59331 -12.34522 38154 ft 457 kts 285°
2026-05-05 17:41 54.61065 -12.45013 38158 ft 457 kts 285°
2026-05-05 17:42 54.62799 -12.55572 38161 ft 457 kts 285°
2026-05-05 17:42 54.64525 -12.66146 38161 ft 457 kts 285°
2026-05-05 17:43 54.66231 -12.76667 38164 ft 457 kts 285°
2026-05-05 17:43 54.67936 -12.87241 38165 ft 457 kts 285°
2026-05-05 17:44 54.69633 -12.97835 38162 ft 457 kts 285°
2026-05-05 17:44 54.71318 -13.08418 38169 ft 457 kts 285°
2026-05-05 17:45 54.72996 -13.19027 38169 ft 457 kts 285°
2026-05-05 17:45 54.74653 -13.29570 38170 ft 457 kts 285°
2026-05-05 17:46 54.76312 -13.40188 38168 ft 457 kts 285°
2026-05-05 17:46 54.77962 -13.50821 38168 ft 457 kts 285°
2026-05-05 17:47 54.79603 -13.61467 38171 ft 457 kts 285°
2026-05-05 17:47 54.81227 -13.72062 38174 ft 458 kts 285°
2026-05-05 17:48 54.82851 -13.82738 38174 ft 458 kts 285°
2026-05-05 17:48 54.84469 -13.93436 38175 ft 458 kts 285°
2026-05-05 17:49 54.86065 -14.04065 38173 ft 458 kts 284°
2026-05-05 17:49 54.87665 -14.14787 38174 ft 458 kts 284°
2026-05-05 17:50 54.89256 -14.25525 38179 ft 459 kts 284°
2026-05-05 17:50 54.90837 -14.36259 38176 ft 459 kts 284°
2026-05-05 17:51 54.92399 -14.46942 38179 ft 459 kts 284°
2026-05-05 17:51 54.93963 -14.57714 38177 ft 459 kts 284°
2026-05-05 17:52 54.95520 -14.68511 38182 ft 460 kts 284°
2026-05-05 17:52 54.97058 -14.79250 38182 ft 460 kts 284°
2026-05-05 17:53 54.98597 -14.90057 38182 ft 460 kts 284°
2026-05-05 17:53 55.00198 -15.00858 38190 ft 460 kts 288°
2026-05-05 17:54 55.02462 -15.11295 38178 ft 460 kts 291°
2026-05-05 17:54 55.04817 -15.21599 38187 ft 460 kts 291°
2026-05-05 17:55 55.07163 -15.31980 38183 ft 460 kts 291°
2026-05-05 17:55 55.09481 -15.42385 38189 ft 460 kts 291°
2026-05-05 17:56 55.11781 -15.52802 38187 ft 460 kts 291°
2026-05-05 17:56 55.14058 -15.63170 38186 ft 460 kts 291°
2026-05-05 17:57 55.16341 -15.73620 38189 ft 460 kts 291°
2026-05-05 17:57 55.18613 -15.84064 38189 ft 459 kts 291°
2026-05-05 17:58 55.20876 -15.94521 38194 ft 459 kts 291°
2026-05-05 17:58 55.23116 -16.04926 38191 ft 459 kts 291°
2026-05-05 17:59 55.25358 -16.15392 38196 ft 459 kts 291°
2026-05-05 17:59 55.27595 -16.25885 38194 ft 459 kts 291°
2026-05-05 18:00 55.29819 -16.36375 38193 ft 459 kts 291°
2026-05-05 18:00 55.32020 -16.46812 38196 ft 459 kts 291°
2026-05-05 18:01 55.34227 -16.57326 38199 ft 459 kts 291°
2026-05-05 18:01 55.36424 -16.67853 38200 ft 459 kts 291°
2026-05-05 18:02 55.38610 -16.78379 38200 ft 459 kts 290°
2026-05-05 18:02 55.40420 -16.87137 38196 ft 458 kts 290°
2026-05-05 18:03 55.42592 -16.97694 38203 ft 458 kts 290°
2026-05-05 18:03 55.45103 -17.09976 38206 ft 458 kts 290°
2026-05-05 18:04 55.46905 -17.18835 38204 ft 458 kts 290°
2026-05-05 18:04 55.49048 -17.29418 38203 ft 458 kts 290°
2026-05-05 18:05 55.51168 -17.39949 38214 ft 458 kts 290°
2026-05-05 18:05 55.53291 -17.50552 38208 ft 458 kts 290°
2026-05-05 18:06 55.55405 -17.61163 38210 ft 458 kts 290°
2026-05-05 18:06 55.57512 -17.71802 38210 ft 458 kts 290°
2026-05-05 18:07 55.59610 -17.82451 38211 ft 458 kts 290°
2026-05-05 18:07 55.61683 -17.93027 38206 ft 458 kts 290°
2026-05-05 18:08 55.63762 -18.03694 38220 ft 458 kts 290°
2026-05-05 18:08 55.65831 -18.14374 38214 ft 458 kts 290°
2026-05-05 18:09 55.67893 -18.25068 38221 ft 458 kts 290°
2026-05-05 18:09 55.69930 -18.35700 38222 ft 458 kts 290°
2026-05-05 18:10 55.71972 -18.46413 38221 ft 458 kts 290°
2026-05-05 18:10 55.74005 -18.57140 38223 ft 458 kts 290°
2026-05-05 18:11 55.76031 -18.67886 38221 ft 458 kts 290°
2026-05-05 18:11 55.78030 -18.78556 38223 ft 458 kts 290°
2026-05-05 18:12 55.80034 -18.89312 38235 ft 458 kts 290°
2026-05-05 18:12 55.82029 -19.00075 38227 ft 458 kts 290°
2026-05-05 18:13 55.84014 -19.10853 38222 ft 458 kts 290°
2026-05-05 18:13 55.85989 -19.21634 38226 ft 458 kts 290°
2026-05-05 18:14 55.87941 -19.32356 38234 ft 458 kts 290°
2026-05-05 18:14 55.89897 -19.43162 38242 ft 458 kts 290°
2026-05-05 18:15 55.91843 -19.53974 38236 ft 458 kts 290°
2026-05-05 18:15 55.93781 -19.64804 38233 ft 458 kts 290°
2026-05-05 18:16 55.95707 -19.75633 38241 ft 458 kts 290°
2026-05-05 18:16 55.97623 -19.86459 38224 ft 458 kts 289°
2026-05-05 18:17 55.99458 -19.97262 38240 ft 458 kts 286°
2026-05-05 18:17 56.00424 -20.08534 38241 ft 461 kts 277°
2026-05-05 18:18 56.00843 -20.19977 38232 ft 461 kts 276°
2026-05-05 18:18 56.01242 -20.31429 38232 ft 461 kts 276°
2026-05-05 18:19 56.01651 -20.42783 38232 ft 461 kts 277°
2026-05-05 18:19 56.02067 -20.54228 38237 ft 461 kts 277°
2026-05-05 18:20 56.02477 -20.65671 38236 ft 461 kts 277°
2026-05-05 18:20 56.02872 -20.77023 38235 ft 461 kts 276°
2026-05-05 18:21 56.03259 -20.88455 38237 ft 460 kts 276°
2026-05-05 18:21 56.03635 -20.99880 38235 ft 460 kts 276°
2026-05-05 18:22 56.04000 -21.11309 38238 ft 460 kts 276°
2026-05-05 18:22 56.04355 -21.22741 38232 ft 460 kts 276°
2026-05-05 18:23 56.04697 -21.34096 38238 ft 460 kts 276°
2026-05-05 18:23 56.05030 -21.45523 38234 ft 460 kts 276°
2026-05-05 18:24 56.05353 -21.56957 38236 ft 460 kts 276°
2026-05-05 18:24 56.05665 -21.68393 38237 ft 460 kts 276°
2026-05-05 18:25 56.05965 -21.79762 38232 ft 460 kts 276°
2026-05-05 18:25 56.06256 -21.91209 38237 ft 460 kts 276°
2026-05-05 18:26 56.06537 -22.02664 38238 ft 460 kts 276°
2026-05-05 18:26 56.06806 -22.14044 38237 ft 461 kts 275°
2026-05-05 18:27 56.07066 -22.25514 38237 ft 461 kts 275°
2026-05-05 18:27 56.07315 -22.36984 38234 ft 461 kts 275°
2026-05-05 18:28 56.07668 -22.54127 38232 ft 461 kts 275°
2026-05-05 18:28 56.07891 -22.65616 38235 ft 461 kts 275°
2026-05-05 18:29 56.08103 -22.77101 38232 ft 462 kts 275°
2026-05-05 18:29 56.08304 -22.88522 38239 ft 462 kts 275°
2026-05-05 18:30 56.08495 -23.00021 38234 ft 462 kts 275°
2026-05-05 18:30 56.08676 -23.11528 38231 ft 462 kts 275°
2026-05-05 18:31 56.08846 -23.23034 38232 ft 462 kts 275°
2026-05-05 18:31 56.09005 -23.34482 38234 ft 463 kts 274°
2026-05-05 18:32 56.09154 -23.46003 38235 ft 463 kts 274°
2026-05-05 18:32 56.09292 -23.57517 38239 ft 463 kts 274°
2026-05-05 18:33 56.09419 -23.69058 38228 ft 463 kts 274°
2026-05-05 18:33 56.09535 -23.80525 38237 ft 463 kts 274°
2026-05-05 18:34 56.09641 -23.92060 38234 ft 463 kts 274°
2026-05-05 18:34 56.09737 -24.03600 38232 ft 463 kts 274°
2026-05-05 18:35 56.09821 -24.15158 38235 ft 463 kts 274°
2026-05-05 18:35 56.09895 -24.26620 38234 ft 463 kts 274°
2026-05-05 18:36 56.09958 -24.38171 38237 ft 464 kts 274°
2026-05-05 18:36 56.10010 -24.49730 38232 ft 464 kts 274°
2026-05-05 18:37 56.10052 -24.61285 38231 ft 464 kts 274°
2026-05-05 18:37 56.10083 -24.72834 38238 ft 464 kts 274°
2026-05-05 18:38 56.10103 -24.84320 38241 ft 464 kts 274°
2026-05-05 18:38 56.10112 -24.95872 38230 ft 464 kts 273°
2026-05-05 18:39 56.10111 -25.07427 38231 ft 464 kts 273°
2026-05-05 18:39 56.10098 -25.18989 38243 ft 464 kts 273°
2026-05-05 18:40 56.10075 -25.30544 38236 ft 463 kts 273°
2026-05-05 18:40 56.10042 -25.42023 38237 ft 463 kts 273°
2026-05-05 18:41 56.09997 -25.53559 38240 ft 463 kts 273°
2026-05-05 18:41 56.09942 -25.65094 38242 ft 463 kts 273°
2026-05-05 18:42 56.09876 -25.76627 38239 ft 463 kts 273°
2026-05-05 18:42 56.09799 -25.88173 38243 ft 463 kts 272°
2026-05-05 18:43 56.09712 -25.99629 38242 ft 463 kts 272°
2026-05-05 18:43 56.09614 -26.11161 38247 ft 463 kts 272°
2026-05-05 18:44 56.09505 -26.22678 38240 ft 462 kts 272°
2026-05-05 18:44 56.09387 -26.34118 38251 ft 462 kts 272°
2026-05-05 18:45 56.09257 -26.45618 38252 ft 462 kts 272°
2026-05-05 18:45 56.09116 -26.57130 38248 ft 462 kts 272°
2026-05-05 18:46 56.08965 -26.68630 38248 ft 462 kts 272°
2026-05-05 18:46 56.08803 -26.80134 38248 ft 461 kts 272°
2026-05-05 18:47 56.08631 -26.91553 38243 ft 461 kts 271°
2026-05-05 18:47 56.08448 -27.03042 38256 ft 461 kts 271°
2026-05-05 18:48 56.08254 -27.14524 38253 ft 461 kts 271°
2026-05-05 18:48 56.08051 -27.25924 38252 ft 461 kts 271°
2026-05-05 18:49 56.07836 -27.37400 38253 ft 461 kts 271°
2026-05-05 18:49 56.07611 -27.48861 38252 ft 461 kts 271°
2026-05-05 18:50 56.07375 -27.60333 38253 ft 461 kts 271°
2026-05-05 18:50 56.07130 -27.71713 38251 ft 460 kts 271°
2026-05-05 18:51 56.06873 -27.83167 38249 ft 460 kts 270°
2026-05-05 18:51 56.06606 -27.94620 38254 ft 460 kts 270°
2026-05-05 18:52 56.06327 -28.06080 38250 ft 460 kts 270°
2026-05-05 18:52 56.06041 -28.17440 38249 ft 460 kts 270°
2026-05-05 18:53 56.05742 -28.28871 38254 ft 460 kts 270°
2026-05-05 18:53 56.05433 -28.40290 38250 ft 460 kts 270°
2026-05-05 18:54 56.05113 -28.51726 38248 ft 460 kts 270°
2026-05-05 18:54 56.04784 -28.63083 38253 ft 460 kts 269°
2026-05-05 18:55 56.04443 -28.74499 38255 ft 460 kts 269°
2026-05-05 18:55 56.04092 -28.85910 38254 ft 459 kts 269°
2026-05-05 18:56 56.03730 -28.97335 38252 ft 459 kts 269°
2026-05-05 18:56 56.03360 -29.08664 38252 ft 459 kts 269°
2026-05-05 18:57 56.02977 -29.20076 38254 ft 459 kts 269°
2026-05-05 18:57 56.02585 -29.31463 38252 ft 459 kts 268°
2026-05-05 18:58 56.02181 -29.42855 38251 ft 459 kts 268°
2026-05-05 18:58 56.01770 -29.54167 38252 ft 459 kts 268°
2026-05-05 18:59 56.01347 -29.65540 38249 ft 459 kts 268°
2026-05-05 18:59 56.00912 -29.76921 38253 ft 459 kts 268°
2026-05-05 19:00 56.00470 -29.88289 38253 ft 459 kts 268°
2026-05-05 19:00 56.00058 -29.99660 38261 ft 458 kts 270°
2026-05-05 19:01 56.00353 -30.10928 38261 ft 457 kts 276°
2026-05-05 19:01 56.00838 -30.22246 38253 ft 457 kts 276°
2026-05-05 19:02 56.01303 -30.33588 38254 ft 458 kts 275°
2026-05-05 19:02 56.01737 -30.44940 38254 ft 458 kts 275°
2026-05-05 19:03 56.02150 -30.56241 38251 ft 458 kts 275°
2026-05-05 19:03 56.02552 -30.67610 38253 ft 459 kts 275°
2026-05-05 19:04 56.02945 -30.79008 38250 ft 459 kts 275°
2026-05-05 19:04 56.03329 -30.90408 38250 ft 459 kts 274°
2026-05-05 19:05 56.03702 -31.01821 38253 ft 460 kts 274°
2026-05-05 19:05 56.04063 -31.13183 38255 ft 460 kts 274°
2026-05-05 19:06 56.04416 -31.24617 38252 ft 460 kts 274°
2026-05-05 19:06 56.04758 -31.36053 38247 ft 461 kts 274°
2026-05-05 19:07 56.05088 -31.47420 38243 ft 461 kts 273°
2026-05-05 19:07 56.05410 -31.58880 38243 ft 461 kts 273°
2026-05-05 19:08 56.05721 -31.70353 38243 ft 462 kts 273°
2026-05-05 19:08 56.06022 -31.81836 38240 ft 462 kts 273°
2026-05-05 19:09 56.06311 -31.93263 38236 ft 462 kts 272°
2026-05-05 19:09 56.06592 -32.04778 38239 ft 463 kts 272°
2026-05-05 19:10 56.06862 -32.16299 38229 ft 463 kts 272°
2026-05-05 19:10 56.07119 -32.27746 38237 ft 463 kts 272°
2026-05-05 19:11 56.07368 -32.39277 38235 ft 464 kts 272°
2026-05-05 19:11 56.07606 -32.50827 38232 ft 464 kts 272°
2026-05-05 19:12 56.07833 -32.62380 38233 ft 464 kts 272°
2026-05-05 19:12 56.08050 -32.73936 38230 ft 465 kts 271°
2026-05-05 19:13 56.08255 -32.85443 38226 ft 465 kts 271°
2026-05-05 19:13 56.08451 -32.97042 38225 ft 466 kts 271°
2026-05-05 19:14 56.08636 -33.08641 38226 ft 466 kts 271°
2026-05-05 19:14 56.08809 -33.20176 38219 ft 467 kts 271°
2026-05-05 19:15 56.08973 -33.31825 38222 ft 467 kts 270°
2026-05-05 19:15 56.09125 -33.43469 38218 ft 468 kts 270°
2026-05-05 19:16 56.09267 -33.55123 38215 ft 469 kts 270°
2026-05-05 19:16 56.09399 -33.66801 38214 ft 469 kts 270°
2026-05-05 19:17 56.09518 -33.78425 38213 ft 470 kts 270°
2026-05-05 19:17 56.09628 -33.90156 38209 ft 471 kts 270°
2026-05-05 19:18 56.09726 -34.01881 38209 ft 471 kts 269°
2026-05-05 19:18 56.09814 -34.13628 38205 ft 472 kts 269°
2026-05-05 19:19 56.09890 -34.25385 38206 ft 472 kts 269°
2026-05-05 19:19 56.09955 -34.37090 38200 ft 473 kts 269°
2026-05-05 19:20 56.10010 -34.48883 38198 ft 473 kts 269°
2026-05-05 19:20 56.10053 -34.60688 38194 ft 474 kts 269°
2026-05-05 19:21 56.10085 -34.72491 38194 ft 474 kts 268°
2026-05-05 19:21 56.10105 -34.84245 38191 ft 475 kts 268°
2026-05-05 19:22 56.10115 -34.96078 38189 ft 475 kts 268°
2026-05-05 19:22 56.10113 -35.07913 38186 ft 475 kts 268°
2026-05-05 19:23 56.10103 -35.17752 38183 ft 476 kts 268°
2026-05-05 19:23 56.10080 -35.29607 38185 ft 476 kts 268°
2026-05-05 19:24 56.10039 -35.43404 38179 ft 477 kts 268°
2026-05-05 19:24 56.09992 -35.55274 38174 ft 477 kts 267°
2026-05-05 19:25 56.09944 -35.65152 38172 ft 477 kts 267°
2026-05-05 19:25 56.09876 -35.77059 38170 ft 478 kts 267°
2026-05-05 19:26 56.09796 -35.88965 38175 ft 479 kts 267°
2026-05-05 19:26 56.09704 -36.00906 38168 ft 479 kts 266°
2026-05-05 19:27 56.09601 -36.12851 38166 ft 480 kts 266°
2026-05-05 19:27 56.09487 -36.24723 38164 ft 481 kts 266°
2026-05-05 19:28 56.09361 -36.36706 38157 ft 481 kts 266°
2026-05-05 19:28 56.09222 -36.48723 38161 ft 483 kts 266°
2026-05-05 19:29 56.09072 -36.60692 38146 ft 484 kts 266°
2026-05-05 19:29 56.08910 -36.72762 38155 ft 484 kts 266°
2026-05-05 19:30 56.08736 -36.84812 38147 ft 485 kts 265°
2026-05-05 19:30 56.08550 -36.96885 38147 ft 485 kts 265°
2026-05-05 19:31 56.08353 -37.08883 38140 ft 485 kts 265°
2026-05-05 19:31 56.08143 -37.20980 38138 ft 486 kts 265°
2026-05-05 19:32 56.07921 -37.33070 38146 ft 486 kts 265°
2026-05-05 19:32 56.07688 -37.45117 38146 ft 487 kts 265°
2026-05-05 19:33 56.07442 -37.57236 38119 ft 488 kts 265°
2026-05-05 19:33 56.07184 -37.69362 38136 ft 487 kts 265°
2026-05-05 19:34 56.06914 -37.81469 38128 ft 487 kts 264°
2026-05-05 19:35 56.06489 -37.99558 38122 ft 486 kts 264°
2026-05-05 19:35 56.06190 -38.11641 38119 ft 486 kts 264°
2026-05-05 19:36 56.05880 -38.23729 38118 ft 486 kts 264°
2026-05-05 19:36 56.05557 -38.35811 38115 ft 486 kts 264°
2026-05-05 19:37 56.05225 -38.47805 38111 ft 486 kts 264°
2026-05-05 19:37 56.04880 -38.59874 38113 ft 486 kts 264°
2026-05-05 19:38 56.04522 -38.71941 38114 ft 486 kts 264°
2026-05-05 19:38 56.04153 -38.84016 38108 ft 486 kts 263°
2026-05-05 19:39 56.03771 -38.96082 38102 ft 486 kts 263°
2026-05-05 19:39 56.03381 -39.08072 38109 ft 486 kts 263°
2026-05-05 19:40 56.02976 -39.20152 38103 ft 486 kts 263°
2026-05-05 19:40 56.02559 -39.32227 38098 ft 486 kts 263°
2026-05-05 19:41 56.02130 -39.44294 38101 ft 487 kts 263°
2026-05-05 19:41 56.01693 -39.56286 38104 ft 487 kts 263°
2026-05-05 19:42 56.01240 -39.68367 38104 ft 487 kts 263°
2026-05-05 19:42 56.00776 -39.80436 38090 ft 487 kts 263°
2026-05-05 19:43 56.00302 -39.92521 38089 ft 487 kts 263°
2026-05-05 19:43 55.99789 -40.04575 38099 ft 486 kts 262°
2026-05-05 19:44 55.99099 -40.16515 38090 ft 486 kts 260°
2026-05-05 19:44 55.98347 -40.28524 38095 ft 486 kts 260°
2026-05-05 19:45 55.97602 -40.40534 38091 ft 486 kts 261°
2026-05-05 19:45 55.96861 -40.52546 38087 ft 486 kts 261°
2026-05-05 19:46 55.96115 -40.64557 38088 ft 487 kts 260°
2026-05-05 19:46 55.95361 -40.76493 38082 ft 487 kts 260°
2026-05-05 19:47 55.94591 -40.88492 38085 ft 487 kts 260°
2026-05-05 19:47 55.93806 -41.00509 38085 ft 487 kts 260°
2026-05-05 19:48 55.93011 -41.12516 38077 ft 487 kts 260°
2026-05-05 19:48 55.92208 -41.24451 38079 ft 488 kts 260°
2026-05-05 19:49 55.91388 -41.36465 38074 ft 488 kts 260°
2026-05-05 19:49 55.90555 -41.48496 38073 ft 488 kts 260°
2026-05-05 19:50 55.89716 -41.60437 38071 ft 489 kts 260°
2026-05-05 19:50 55.88858 -41.72473 38063 ft 489 kts 259°
2026-05-05 19:51 55.87989 -41.84493 38062 ft 490 kts 259°
2026-05-05 19:51 55.87106 -41.96549 38063 ft 490 kts 259°
2026-05-05 19:52 55.86212 -42.08586 38059 ft 491 kts 259°
2026-05-05 19:52 55.85309 -42.20574 38055 ft 491 kts 259°
2026-05-05 19:53 55.84389 -42.32638 38051 ft 492 kts 259°
2026-05-05 19:53 55.83456 -42.44694 38044 ft 492 kts 259°
2026-05-05 19:54 55.82518 -42.56675 38044 ft 492 kts 259°
2026-05-05 19:54 55.81561 -42.68729 38040 ft 493 kts 259°
2026-05-05 19:55 55.80591 -42.80793 38035 ft 493 kts 259°
2026-05-05 19:55 55.79610 -42.92846 38031 ft 493 kts 259°
2026-05-05 19:56 55.78617 -43.04899 38026 ft 493 kts 259°
2026-05-05 19:56 55.77611 -43.16963 38021 ft 493 kts 259°
2026-05-05 19:57 55.76602 -43.28917 38015 ft 493 kts 258°
2026-05-05 19:57 55.75573 -43.40962 38014 ft 493 kts 258°
2026-05-05 19:58 55.74532 -43.52999 38009 ft 493 kts 258°
2026-05-05 19:58 55.73479 -43.65028 38008 ft 493 kts 258°
2026-05-05 19:59 55.72417 -43.77030 38006 ft 493 kts 258°
2026-05-05 19:59 55.71342 -43.89026 37987 ft 492 kts 258°
2026-05-05 20:00 55.70262 -44.00955 37980 ft 492 kts 258°
2026-05-05 20:00 55.69162 -44.12957 37990 ft 493 kts 258°
2026-05-05 20:01 55.68054 -44.24924 37982 ft 493 kts 258°
2026-05-05 20:01 55.66931 -44.36908 37975 ft 493 kts 258°
2026-05-05 20:02 55.65806 -44.48791 37968 ft 493 kts 258°
2026-05-05 20:02 55.64659 -44.60780 37958 ft 493 kts 258°
2026-05-05 20:03 55.63503 -44.72734 37959 ft 493 kts 257°
2026-05-05 20:03 55.62333 -44.84702 37955 ft 493 kts 257°
2026-05-05 20:04 55.61161 -44.96567 37941 ft 493 kts 257°
2026-05-05 20:04 55.59968 -45.08515 37941 ft 493 kts 257°
2026-05-05 20:05 55.58764 -45.20452 37935 ft 493 kts 257°
2026-05-05 20:05 55.57550 -45.32369 37922 ft 492 kts 257°
2026-05-05 20:06 55.56324 -45.44284 37919 ft 492 kts 257°
2026-05-05 20:06 55.55088 -45.56169 37916 ft 492 kts 257°
2026-05-05 20:07 55.53850 -45.67969 37911 ft 492 kts 257°
2026-05-05 20:07 55.52591 -45.79840 37897 ft 492 kts 257°
2026-05-05 20:08 55.51321 -45.91703 37892 ft 492 kts 256°
2026-05-05 20:08 55.50040 -46.03559 37887 ft 492 kts 256°
2026-05-05 20:09 55.48748 -46.15399 37882 ft 491 kts 256°
2026-05-05 20:09 55.47454 -46.27150 37882 ft 491 kts 256°
2026-05-05 20:10 55.46139 -46.38965 37877 ft 491 kts 256°
2026-05-05 20:10 55.44815 -46.50770 37867 ft 491 kts 256°
2026-05-05 20:11 55.43480 -46.62562 37863 ft 491 kts 256°
2026-05-05 20:11 55.42136 -46.74322 37861 ft 491 kts 256°
2026-05-05 20:12 55.40785 -46.86036 37857 ft 490 kts 256°
2026-05-05 20:12 55.39417 -46.97798 37849 ft 490 kts 256°
2026-05-05 20:13 55.38044 -47.09478 37841 ft 490 kts 256°
2026-05-05 20:13 55.36655 -47.21199 37839 ft 490 kts 256°
2026-05-05 20:14 55.35255 -47.32922 37830 ft 489 kts 255°
2026-05-05 20:14 55.33852 -47.44555 37824 ft 489 kts 256°
2026-05-05 20:15 55.32434 -47.56225 37822 ft 489 kts 255°
2026-05-05 20:15 55.31005 -47.67892 37814 ft 489 kts 255°
2026-05-05 20:16 55.29564 -47.79547 37809 ft 488 kts 255°
2026-05-05 20:16 55.28113 -47.91182 37804 ft 488 kts 255°
2026-05-05 20:17 55.26661 -48.02729 37798 ft 487 kts 255°
2026-05-05 20:17 55.25189 -48.14337 37794 ft 487 kts 255°
2026-05-05 20:18 55.23709 -48.25913 37789 ft 486 kts 255°
2026-05-05 20:18 55.22230 -48.37398 37785 ft 486 kts 255°
2026-05-05 20:19 55.20731 -48.48939 37779 ft 486 kts 255°
2026-05-05 20:19 55.19220 -48.60480 37771 ft 486 kts 255°
2026-05-05 20:20 55.17702 -48.71993 37766 ft 485 kts 255°
2026-05-05 20:20 55.16182 -48.83422 37766 ft 485 kts 255°
2026-05-05 20:21 55.14639 -48.94923 37758 ft 485 kts 254°
2026-05-05 20:21 55.13092 -49.06386 37752 ft 485 kts 255°
2026-05-05 20:22 55.11540 -49.17786 37752 ft 484 kts 254°
2026-05-05 20:22 55.09969 -49.29237 37741 ft 484 kts 254°
2026-05-05 20:23 55.08391 -49.40654 37742 ft 484 kts 254°
2026-05-05 20:23 55.06810 -49.52002 37736 ft 483 kts 254°
2026-05-05 20:24 55.05212 -49.63395 37730 ft 483 kts 254°
2026-05-05 20:24 55.03606 -49.74765 37729 ft 483 kts 254°
2026-05-05 20:25 55.01992 -49.86114 37723 ft 482 kts 254°
2026-05-05 20:25 55.00371 -49.97372 37723 ft 482 kts 252°
2026-05-05 20:26 54.98103 -50.08306 37719 ft 479 kts 245°
2026-05-05 20:26 54.95473 -50.18972 37708 ft 478 kts 245°
2026-05-05 20:27 54.92859 -50.29531 37707 ft 478 kts 245°
2026-05-05 20:27 54.90246 -50.40160 37700 ft 478 kts 245°
2026-05-05 20:28 54.87641 -50.50777 37702 ft 478 kts 245°
2026-05-05 20:28 54.85042 -50.61323 37696 ft 478 kts 245°
2026-05-05 20:29 54.82412 -50.71939 37691 ft 478 kts 245°
2026-05-05 20:29 54.79777 -50.82529 37691 ft 478 kts 245°
2026-05-05 20:30 54.77133 -50.93102 37688 ft 478 kts 245°
2026-05-05 20:30 54.74479 -51.03660 37682 ft 478 kts 245°
2026-05-05 20:31 54.71825 -51.14166 37681 ft 480 kts 245°
2026-05-05 20:31 54.69132 -51.24781 37680 ft 484 kts 245°
2026-05-05 20:32 54.66419 -51.35421 37668 ft 482 kts 245°
2026-05-05 20:32 54.63721 -51.45955 37669 ft 483 kts 245°
2026-05-05 20:33 54.61007 -51.56504 37665 ft 481 kts 245°
2026-05-05 20:33 54.58277 -51.67060 37661 ft 481 kts 245°
2026-05-05 20:34 54.55542 -51.77582 37666 ft 482 kts 245°
2026-05-05 20:34 54.52808 -51.88059 37655 ft 481 kts 245°
2026-05-05 20:35 54.50055 -51.98558 37656 ft 481 kts 245°
2026-05-05 20:35 54.47286 -52.09067 37653 ft 481 kts 245°
2026-05-05 20:36 54.44521 -52.19515 37655 ft 480 kts 245°
2026-05-05 20:36 54.41760 -52.29897 37649 ft 481 kts 245°
2026-05-05 20:37 54.38969 -52.40345 37647 ft 479 kts 245°
2026-05-05 20:37 54.36194 -52.50689 37642 ft 474 kts 245°
2026-05-05 20:38 54.33435 -52.60927 37640 ft 472 kts 245°
2026-05-05 20:38 54.30693 -52.71050 37646 ft 472 kts 245°
2026-05-05 20:39 54.27917 -52.81259 37646 ft 473 kts 245°
2026-05-05 20:39 54.25129 -52.91463 37650 ft 474 kts 245°
2026-05-05 20:40 54.22327 -53.01677 37646 ft 475 kts 245°
2026-05-05 20:40 54.19525 -53.11842 37647 ft 476 kts 244°
2026-05-05 20:41 54.16690 -53.22085 37646 ft 477 kts 244°
2026-05-05 20:41 54.13865 -53.32244 37647 ft 477 kts 244°
2026-05-05 20:42 54.11008 -53.42473 37642 ft 477 kts 244°
2026-05-05 20:42 54.08142 -53.52690 37643 ft 477 kts 244°
2026-05-05 20:43 54.05274 -53.62871 37645 ft 477 kts 244°
2026-05-05 20:43 54.02410 -53.72992 37648 ft 477 kts 244°
2026-05-05 20:44 53.99525 -53.83141 37642 ft 476 kts 244°
2026-05-05 20:44 53.96657 -53.93189 37644 ft 475 kts 244°
2026-05-05 20:45 53.92804 -54.06622 37644 ft 474 kts 244°
2026-05-05 20:45 53.89906 -54.16674 37648 ft 473 kts 244°
2026-05-05 20:46 53.86537 -54.28305 37646 ft 473 kts 244°
2026-05-05 20:46 53.84124 -54.36601 37645 ft 472 kts 244°
2026-05-05 20:47 53.81212 -54.46573 37645 ft 471 kts 244°
2026-05-05 20:47 53.77827 -54.58111 37645 ft 471 kts 244°
2026-05-05 20:48 53.75399 -54.66353 37643 ft 470 kts 244°
2026-05-05 20:48 53.72477 -54.76234 37646 ft 470 kts 244°
2026-05-05 20:49 53.69547 -54.86101 37645 ft 469 kts 244°
2026-05-05 20:49 53.66627 -54.95895 37640 ft 469 kts 244°
2026-05-05 20:50 53.63691 -55.05701 37645 ft 468 kts 244°
2026-05-05 20:50 53.60747 -55.15494 37643 ft 468 kts 244°
2026-05-05 20:51 53.57799 -55.25261 37641 ft 468 kts 244°
2026-05-05 20:51 53.54861 -55.34953 37647 ft 468 kts 244°
2026-05-05 20:52 53.51898 -55.44691 37639 ft 467 kts 244°
2026-05-05 20:52 53.48929 -55.54406 37638 ft 467 kts 244°
2026-05-05 20:53 53.45955 -55.64099 37632 ft 467 kts 244°
2026-05-05 20:53 53.42993 -55.73715 37630 ft 467 kts 244°
2026-05-05 20:54 53.40005 -55.83376 37625 ft 466 kts 244°
2026-05-05 20:54 53.37010 -55.93020 37622 ft 466 kts 244°
2026-05-05 20:55 53.34015 -56.02627 37616 ft 466 kts 244°
2026-05-05 20:55 53.31006 -56.12241 37611 ft 465 kts 244°
2026-05-05 20:56 53.27999 -56.21811 37608 ft 465 kts 244°
2026-05-05 20:56 53.25008 -56.31290 37606 ft 464 kts 244°
2026-05-05 20:57 53.21995 -56.40806 37602 ft 463 kts 244°
2026-05-05 20:57 53.18977 -56.50298 37598 ft 462 kts 244°
2026-05-05 20:58 53.15954 -56.59772 37613 ft 463 kts 243°
2026-05-05 20:58 53.14438 -56.64511 37740 ft 465 kts 243°
2026-05-05 20:58 53.12937 -56.69197 37999 ft 465 kts 243°
2026-05-05 20:59 53.11414 -56.73937 38232 ft 465 kts 243°
2026-05-05 20:59 53.09825 -56.78634 38389 ft 466 kts 240°
2026-05-05 20:59 53.07992 -56.83101 38538 ft 467 kts 236°
2026-05-05 20:59 53.06059 -56.87461 38715 ft 467 kts 235°
2026-05-05 21:00 53.04117 -56.91789 38882 ft 467 kts 235°
2026-05-05 21:00 53.02196 -56.96060 39034 ft 467 kts 235°
2026-05-05 21:00 53.00253 -57.00388 39196 ft 468 kts 235°
2026-05-05 21:00 52.98312 -57.04722 39339 ft 468 kts 235°
2026-05-05 21:01 52.96370 -57.09065 39475 ft 468 kts 235°
2026-05-05 21:01 52.94426 -57.13419 39529 ft 469 kts 235°
2026-05-05 21:01 52.90541 -57.22107 39617 ft 469 kts 235°
2026-05-05 21:02 52.86671 -57.30736 39618 ft 469 kts 234°
2026-05-05 21:02 52.82776 -57.39388 39624 ft 469 kts 234°
2026-05-05 21:03 52.78876 -57.48020 39633 ft 469 kts 234°
2026-05-05 21:03 52.74963 -57.56650 39636 ft 469 kts 234°
2026-05-05 21:04 52.71046 -57.65262 39632 ft 469 kts 234°
2026-05-05 21:04 52.67141 -57.73819 39637 ft 469 kts 234°
2026-05-05 21:05 52.63207 -57.82407 39637 ft 469 kts 234°
2026-05-05 21:05 52.59265 -57.90988 39635 ft 469 kts 234°
2026-05-05 21:06 52.55357 -57.99463 39649 ft 468 kts 234°
2026-05-05 21:06 52.51424 -58.07964 39636 ft 467 kts 234°
2026-05-05 21:07 52.47487 -58.16447 39632 ft 466 kts 234°
2026-05-05 21:07 52.43558 -58.24883 39643 ft 465 kts 234°
2026-05-05 21:08 52.39627 -58.33297 39648 ft 464 kts 234°
2026-05-05 21:08 52.35728 -58.41615 39630 ft 463 kts 234°
2026-05-05 21:09 52.31806 -58.49953 39633 ft 462 kts 234°
2026-05-05 21:09 52.27887 -58.58259 39645 ft 461 kts 234°
2026-05-05 21:10 52.23996 -58.66480 39649 ft 459 kts 234°
2026-05-05 21:10 52.20085 -58.74716 39653 ft 459 kts 234°
2026-05-05 21:11 52.16172 -58.82928 39649 ft 458 kts 234°
2026-05-05 21:11 52.12262 -58.91109 39653 ft 458 kts 234°
2026-05-05 21:12 52.08373 -58.99221 39657 ft 457 kts 233°
2026-05-05 21:12 52.04456 -59.07364 39659 ft 457 kts 233°
2026-05-05 21:13 52.00532 -59.15495 39662 ft 457 kts 233°
2026-05-05 21:13 51.96631 -59.23553 39666 ft 457 kts 233°
2026-05-05 21:14 51.92701 -59.31646 39669 ft 457 kts 233°
2026-05-05 21:14 51.88764 -59.39728 39668 ft 457 kts 233°
2026-05-05 21:15 51.84820 -59.47798 39672 ft 457 kts 233°
2026-05-05 21:15 51.80890 -59.55817 39667 ft 458 kts 233°
2026-05-05 21:16 51.76926 -59.63877 39671 ft 458 kts 233°
2026-05-05 21:16 51.72956 -59.71925 39674 ft 458 kts 233°
2026-05-05 21:17 51.69007 -59.79904 39676 ft 458 kts 233°
2026-05-05 21:17 51.65028 -59.87920 39680 ft 458 kts 233°
2026-05-05 21:18 51.61042 -59.95925 39681 ft 458 kts 233°
2026-05-05 21:18 51.57057 -60.03902 39679 ft 457 kts 233°
2026-05-05 21:19 51.53099 -60.11800 39684 ft 456 kts 233°
2026-05-05 21:19 51.49115 -60.19727 39687 ft 456 kts 233°
2026-05-05 21:20 51.45130 -60.27632 39690 ft 455 kts 233°
2026-05-05 21:20 51.41177 -60.35447 39688 ft 453 kts 233°
2026-05-05 21:21 51.37207 -60.43272 39690 ft 452 kts 233°
2026-05-05 21:21 51.33241 -60.51068 39693 ft 451 kts 233°
2026-05-05 21:22 51.29281 -60.58828 39694 ft 449 kts 233°
2026-05-05 21:22 51.25330 -60.66546 39696 ft 448 kts 233°
2026-05-05 21:23 51.21411 -60.74179 39697 ft 447 kts 233°
2026-05-05 21:23 51.17468 -60.81835 39696 ft 446 kts 233°
2026-05-05 21:24 51.13533 -60.89456 39697 ft 444 kts 233°
2026-05-05 21:24 51.09603 -60.97043 39700 ft 443 kts 232°
2026-05-05 21:25 51.05706 -61.04544 39709 ft 442 kts 232°
2026-05-05 21:25 51.01782 -61.12074 39701 ft 441 kts 232°
2026-05-05 21:26 50.97864 -61.19572 39701 ft 441 kts 232°
2026-05-05 21:26 50.93947 -61.27046 39701 ft 440 kts 232°
2026-05-05 21:27 50.90060 -61.34440 39698 ft 439 kts 232°
2026-05-05 21:27 50.86149 -61.41860 39691 ft 439 kts 232°
2026-05-05 21:28 50.82229 -61.49276 39711 ft 438 kts 232°
2026-05-05 21:28 50.78341 -61.56609 39710 ft 437 kts 232°
2026-05-05 21:29 50.74430 -61.63965 39702 ft 437 kts 232°
2026-05-05 21:29 50.70519 -61.71301 39705 ft 436 kts 232°
2026-05-05 21:30 50.66603 -61.78624 39692 ft 436 kts 232°
2026-05-05 21:30 50.62689 -61.85925 39695 ft 436 kts 232°
2026-05-05 21:31 50.58796 -61.93163 39687 ft 436 kts 231°
2026-05-05 21:31 50.54882 -62.00422 39691 ft 435 kts 231°
2026-05-05 21:32 50.50958 -62.07677 39689 ft 435 kts 231°
2026-05-05 21:32 50.47034 -62.14913 39683 ft 435 kts 231°
2026-05-05 21:33 50.43129 -62.22094 39679 ft 434 kts 231°
2026-05-05 21:33 50.39203 -62.29295 39676 ft 434 kts 231°
2026-05-05 21:34 50.35275 -62.36476 39672 ft 434 kts 231°
2026-05-05 21:34 50.31350 -62.43635 39670 ft 433 kts 231°
2026-05-05 21:35 50.27442 -62.50741 39661 ft 433 kts 231°
2026-05-05 21:35 50.23512 -62.57868 39656 ft 433 kts 231°
2026-05-05 21:36 50.19578 -62.64983 39651 ft 432 kts 231°
2026-05-05 21:36 50.15648 -62.72071 39645 ft 432 kts 231°
2026-05-05 21:37 50.11714 -62.79148 39641 ft 431 kts 231°
2026-05-05 21:37 50.07805 -62.86160 39637 ft 431 kts 231°
2026-05-05 21:38 50.03863 -62.93211 39632 ft 431 kts 231°
2026-05-05 21:38 49.99918 -63.00250 39630 ft 431 kts 230°
2026-05-05 21:39 49.95990 -63.07237 39626 ft 431 kts 230°
2026-05-05 21:39 49.92039 -63.14248 39629 ft 431 kts 230°
2026-05-05 21:40 49.88086 -63.21244 39628 ft 431 kts 230°
2026-05-05 21:40 49.84122 -63.28240 39630 ft 431 kts 230°
2026-05-05 21:41 49.80183 -63.35171 39626 ft 431 kts 230°
2026-05-05 21:41 49.76215 -63.42137 39634 ft 431 kts 230°
2026-05-05 21:42 49.72242 -63.49093 39622 ft 431 kts 230°
2026-05-05 21:42 49.68262 -63.56041 39626 ft 431 kts 230°
2026-05-05 21:43 49.64314 -63.62915 39626 ft 430 kts 230°
2026-05-05 21:43 49.60340 -63.69815 39622 ft 430 kts 230°
2026-05-05 21:44 49.56359 -63.76712 39624 ft 430 kts 230°
2026-05-05 21:44 49.52409 -63.83536 39623 ft 429 kts 230°
2026-05-05 21:45 49.48426 -63.90397 39616 ft 429 kts 230°
2026-05-05 21:45 49.44446 -63.97238 39611 ft 429 kts 230°
2026-05-05 21:46 49.40459 -64.04072 39607 ft 429 kts 230°
2026-05-05 21:46 49.36487 -64.10860 39602 ft 429 kts 230°
2026-05-05 21:47 49.32492 -64.17671 39594 ft 429 kts 230°
2026-05-05 21:47 49.28490 -64.24477 39583 ft 429 kts 230°
2026-05-05 21:48 49.24510 -64.31226 39581 ft 429 kts 229°
2026-05-05 21:48 49.20503 -64.38004 39576 ft 429 kts 229°
2026-05-05 21:49 49.16488 -64.44779 39573 ft 430 kts 229°
2026-05-05 21:49 49.12471 -64.51539 39567 ft 429 kts 229°
2026-05-05 21:50 49.08475 -64.58245 39568 ft 429 kts 229°
2026-05-05 21:50 49.04451 -64.64981 39568 ft 429 kts 229°
2026-05-05 21:51 49.00426 -64.71703 39561 ft 429 kts 229°
2026-05-05 21:51 48.96398 -64.78410 39568 ft 429 kts 229°
2026-05-05 21:52 48.90385 -64.88393 39572 ft 429 kts 229°
2026-05-05 21:53 48.86348 -64.95074 39576 ft 429 kts 229°
2026-05-05 21:53 48.82305 -65.01747 39595 ft 429 kts 229°
2026-05-05 21:54 48.78264 -65.08399 39601 ft 429 kts 229°
2026-05-05 21:54 48.74238 -65.15010 39591 ft 429 kts 229°
2026-05-05 21:55 48.70176 -65.21665 39597 ft 430 kts 229°
2026-05-05 21:55 48.66115 -65.28299 39609 ft 429 kts 229°
2026-05-05 21:56 48.62055 -65.34915 39601 ft 429 kts 229°
2026-05-05 21:56 48.58024 -65.41465 39608 ft 428 kts 229°
2026-05-05 21:57 48.53969 -65.48041 39622 ft 428 kts 229°
2026-05-05 21:57 48.49908 -65.54609 39627 ft 427 kts 229°
2026-05-05 21:58 48.45856 -65.61143 39630 ft 426 kts 229°
2026-05-05 21:58 48.41839 -65.67608 39632 ft 425 kts 229°
2026-05-05 21:59 48.37797 -65.74097 39626 ft 424 kts 229°
2026-05-05 21:59 48.33754 -65.80570 39632 ft 424 kts 229°
2026-05-05 22:00 48.29718 -65.87018 39628 ft 423 kts 229°
2026-05-05 22:00 48.25708 -65.93408 39630 ft 423 kts 229°
2026-05-05 22:01 48.21667 -65.99831 39628 ft 422 kts 229°
2026-05-05 22:01 48.17634 -66.06225 39631 ft 422 kts 229°
2026-05-05 22:02 48.13625 -66.12567 39633 ft 422 kts 229°
2026-05-05 22:02 48.09587 -66.18938 39619 ft 422 kts 229°
2026-05-05 22:03 48.05548 -66.25293 39616 ft 421 kts 229°
2026-05-05 22:03 48.01515 -66.31627 39621 ft 421 kts 229°
2026-05-05 22:04 47.97498 -66.37919 39611 ft 421 kts 229°
2026-05-05 22:04 47.93447 -66.44249 39617 ft 421 kts 229°
2026-05-05 22:05 47.89394 -66.50567 39610 ft 422 kts 229°
2026-05-05 22:05 47.85360 -66.56840 39621 ft 422 kts 229°
2026-05-05 22:06 47.81282 -66.63166 39623 ft 424 kts 229°
2026-05-05 22:06 47.77194 -66.69493 39607 ft 424 kts 229°
2026-05-05 22:07 47.73104 -66.75807 39608 ft 424 kts 229°
2026-05-05 22:07 47.69014 -66.82105 39617 ft 423 kts 229°
2026-05-05 22:08 47.64955 -66.88342 39624 ft 423 kts 228°
2026-05-05 22:08 47.60854 -66.94628 39621 ft 424 kts 228°
2026-05-05 22:09 47.56750 -67.00903 39622 ft 424 kts 229°
2026-05-05 22:09 47.52658 -67.07146 39619 ft 425 kts 229°
2026-05-05 22:10 47.48535 -67.13422 39626 ft 426 kts 229°
2026-05-05 22:10 47.44398 -67.19703 39628 ft 426 kts 228°
2026-05-05 22:11 47.40959 -67.24916 39626 ft 426 kts 229°
2026-05-05 22:11 47.36142 -67.32202 39631 ft 427 kts 229°
2026-05-05 22:12 47.32684 -67.37477 39628 ft 427 kts 229°
2026-05-05 22:12 47.28586 -67.43738 39634 ft 427 kts 229°
2026-05-05 22:13 47.24459 -67.50027 39634 ft 427 kts 229°
2026-05-05 22:13 47.20327 -67.56306 39637 ft 427 kts 229°
2026-05-05 22:14 47.16187 -67.62579 39624 ft 427 kts 229°
2026-05-05 22:14 47.12073 -67.68796 39639 ft 427 kts 229°
2026-05-05 22:15 47.07931 -67.75043 39639 ft 427 kts 229°
2026-05-05 22:15 47.03785 -67.81278 39659 ft 427 kts 229°
2026-05-05 22:16 46.99632 -67.87511 39664 ft 427 kts 228°
2026-05-05 22:16 46.95477 -67.93732 39692 ft 427 kts 228°
2026-05-05 22:17 46.91314 -67.99950 39680 ft 428 kts 228°
2026-05-05 22:17 46.87168 -68.06128 39688 ft 429 kts 228°
2026-05-05 22:18 46.82985 -68.12347 39682 ft 430 kts 228°
2026-05-05 22:18 46.78784 -68.18577 39703 ft 431 kts 228°
2026-05-05 22:19 46.74569 -68.24814 39695 ft 432 kts 228°
2026-05-05 22:19 46.70337 -68.31061 39700 ft 434 kts 228°
2026-05-05 22:20 46.66085 -68.37323 39684 ft 435 kts 228°
2026-05-05 22:20 46.61823 -68.43584 39683 ft 436 kts 228°
2026-05-05 22:21 46.57573 -68.49811 39684 ft 437 kts 228°
2026-05-05 22:21 46.53278 -68.56091 39668 ft 438 kts 228°
2026-05-05 22:22 46.48973 -68.62371 39670 ft 439 kts 228°
2026-05-05 22:22 46.44685 -68.68610 39676 ft 439 kts 228°
2026-05-05 22:23 46.40375 -68.74867 39668 ft 438 kts 227°
2026-05-05 22:23 46.36077 -68.81092 39673 ft 437 kts 227°
2026-05-05 22:24 46.31776 -68.87306 39673 ft 436 kts 227°
2026-05-05 22:24 46.27497 -68.93474 39673 ft 436 kts 227°
2026-05-05 22:25 46.23203 -68.99651 39678 ft 436 kts 227°
2026-05-05 22:25 46.18895 -69.05832 39680 ft 437 kts 227°
2026-05-05 22:26 46.14581 -69.12007 39684 ft 438 kts 227°
2026-05-05 22:26 46.10231 -69.18219 39690 ft 441 kts 227°
2026-05-05 22:27 46.05885 -69.24414 39687 ft 444 kts 227°
2026-05-05 22:27 46.01485 -69.30667 39678 ft 444 kts 227°
2026-05-05 22:28 45.97092 -69.36895 39679 ft 443 kts 227°
2026-05-05 22:28 45.92702 -69.43103 39686 ft 443 kts 227°
2026-05-05 22:29 45.88310 -69.49303 39687 ft 442 kts 227°
2026-05-05 22:29 45.83921 -69.55483 39698 ft 443 kts 227°
2026-05-05 22:30 45.79538 -69.61642 39676 ft 444 kts 227°
2026-05-05 22:30 45.75128 -69.67822 39688 ft 444 kts 227°
2026-05-05 22:31 45.70702 -69.74010 39690 ft 444 kts 227°
2026-05-05 22:31 45.66279 -69.80179 39699 ft 444 kts 227°
2026-05-05 22:32 45.61887 -69.86292 39698 ft 444 kts 227°
2026-05-05 22:32 45.57452 -69.92451 39706 ft 444 kts 227°
2026-05-05 22:33 45.53022 -69.98586 39700 ft 444 kts 227°
2026-05-05 22:33 45.48606 -70.04691 39705 ft 445 kts 227°
2026-05-05 22:34 45.44150 -70.10836 39701 ft 445 kts 227°
2026-05-05 22:34 45.39693 -70.16967 39704 ft 446 kts 227°
2026-05-05 22:35 45.35226 -70.23098 39701 ft 446 kts 227°
2026-05-05 22:35 45.30746 -70.29232 39714 ft 447 kts 227°
2026-05-05 22:36 45.26305 -70.35296 39520 ft 436 kts 226°
2026-05-05 22:36 45.24168 -70.38205 39589 ft 420 kts 226°
2026-05-05 22:36 45.22074 -70.41054 39622 ft 415 kts 226°
2026-05-05 22:37 45.17886 -70.46758 39695 ft 420 kts 226°
2026-05-05 22:37 45.13635 -70.52536 39710 ft 426 kts 226°
2026-05-05 22:38 45.09342 -70.58351 39720 ft 428 kts 226°
2026-05-05 22:38 45.05027 -70.64181 39711 ft 429 kts 226°
2026-05-05 22:39 45.00739 -70.69962 39701 ft 429 kts 226°
2026-05-05 22:39 44.96423 -70.75768 39713 ft 428 kts 226°
2026-05-05 22:40 44.92105 -70.81565 39706 ft 428 kts 226°
2026-05-05 22:40 44.87794 -70.87340 39716 ft 427 kts 226°
2026-05-05 22:41 44.83491 -70.93093 39733 ft 426 kts 226°
2026-05-05 22:41 44.79185 -70.98836 39747 ft 426 kts 226°
2026-05-05 22:42 44.74910 -71.04525 39762 ft 426 kts 226°
2026-05-05 22:42 44.70603 -71.10246 39784 ft 425 kts 226°
2026-05-05 22:43 44.66293 -71.15958 39795 ft 425 kts 226°
2026-05-05 22:43 44.61985 -71.21655 39791 ft 425 kts 226°
2026-05-05 22:44 44.57670 -71.27349 39799 ft 426 kts 226°
2026-05-05 22:44 44.53379 -71.33000 39782 ft 426 kts 226°
2026-05-05 22:45 44.49058 -71.38677 39768 ft 426 kts 226°
2026-05-05 22:45 44.44731 -71.44352 39790 ft 427 kts 226°
2026-05-05 22:46 44.40385 -71.50040 39804 ft 428 kts 226°
2026-05-05 22:46 44.36026 -71.55731 39815 ft 429 kts 226°
2026-05-05 22:47 44.31683 -71.61390 39812 ft 430 kts 226°
2026-05-05 22:47 44.27303 -71.67088 39799 ft 431 kts 226°
2026-05-05 22:48 44.22925 -71.72779 39782 ft 431 kts 227°
2026-05-05 22:48 44.19003 -71.79059 39768 ft 427 kts 236°
2026-05-05 22:49 44.15503 -71.85743 39759 ft 428 kts 236°
2026-05-05 22:49 44.12005 -71.92385 39749 ft 428 kts 235°
2026-05-05 22:50 44.08468 -71.99059 39746 ft 428 kts 235°
2026-05-05 22:50 44.04920 -72.05724 39765 ft 429 kts 235°
2026-05-05 22:51 44.01369 -72.12379 39765 ft 428 kts 235°
2026-05-05 22:51 43.97813 -72.19027 39772 ft 428 kts 235°
2026-05-05 22:52 43.94279 -72.25621 39780 ft 429 kts 235°
2026-05-05 22:52 43.90716 -72.32254 39779 ft 429 kts 235°
2026-05-05 22:53 43.87151 -72.38876 39780 ft 429 kts 235°
2026-05-05 22:53 43.83579 -72.45494 39781 ft 428 kts 235°
2026-05-05 22:54 43.80012 -72.52090 39779 ft 428 kts 235°
2026-05-05 22:54 43.76456 -72.58649 39784 ft 428 kts 235°
2026-05-05 22:55 43.72876 -72.65238 39787 ft 428 kts 236°
2026-05-05 22:55 43.69293 -72.71818 39807 ft 428 kts 236°
2026-05-05 22:55 43.67499 -72.75107 40156 ft 431 kts 237°
2026-05-05 22:56 43.65676 -72.78448 40006 ft 439 kts 237°
2026-05-05 22:56 43.61943 -72.85282 39885 ft 451 kts 237°
2026-05-05 22:57 43.58110 -72.92276 39301 ft 468 kts 236°
2026-05-05 22:57 43.56161 -72.95826 38655 ft 471 kts 236°
2026-05-05 22:57 43.54186 -72.99412 37792 ft 470 kts 237°
2026-05-05 22:57 43.52205 -73.03001 36981 ft 468 kts 237°
2026-05-05 22:58 43.50237 -73.06563 36196 ft 466 kts 238°
2026-05-05 22:58 43.48275 -73.10113 35377 ft 465 kts 238°
2026-05-05 22:58 43.46316 -73.13658 34482 ft 466 kts 239°
2026-05-05 22:58 43.44351 -73.17213 33533 ft 467 kts 239°
2026-05-05 22:59 43.42383 -73.20772 32470 ft 468 kts 239°
2026-05-05 22:59 43.40417 -73.24316 31742 ft 462 kts 239°
2026-05-05 22:59 43.38475 -73.27809 31012 ft 457 kts 239°
2026-05-05 22:59 43.36582 -73.31210 30343 ft 452 kts 238°
2026-05-05 23:00 43.32801 -73.37999 28858 ft 442 kts 238°
2026-05-05 23:00 43.30939 -73.41337 28124 ft 437 kts 238°
2026-05-05 23:00 43.29102 -73.44627 27393 ft 432 kts 238°
2026-05-05 23:01 43.27287 -73.47877 26677 ft 427 kts 238°
2026-05-05 23:01 43.25489 -73.51094 25957 ft 423 kts 238°
2026-05-05 23:01 43.23706 -73.54279 25261 ft 419 kts 238°
2026-05-05 23:01 43.21939 -73.57430 24565 ft 415 kts 237°
2026-05-05 23:02 43.20006 -73.60252 24104 ft 412 kts 224°
2026-05-05 23:02 43.17520 -73.62349 23950 ft 427 kts 209°
2026-05-05 23:02 43.14695 -73.63675 23811 ft 435 kts 203°
2026-05-05 23:02 43.11808 -73.64848 23763 ft 431 kts 202°
2026-05-05 23:03 43.08947 -73.65987 23760 ft 426 kts 202°
2026-05-05 23:03 43.06106 -73.67134 23767 ft 426 kts 202°
2026-05-05 23:03 43.03264 -73.68305 23785 ft 427 kts 202°
2026-05-05 23:03 43.00421 -73.69492 23722 ft 425 kts 203°
2026-05-05 23:04 42.97613 -73.70672 23160 ft 420 kts 203°
2026-05-05 23:04 42.94830 -73.71845 22525 ft 416 kts 203°
2026-05-05 23:04 42.92082 -73.73006 21912 ft 412 kts 202°
2026-05-05 23:04 42.89395 -73.74141 21340 ft 407 kts 202°
2026-05-05 23:05 42.86704 -73.75276 20756 ft 403 kts 202°
2026-05-05 23:05 42.84047 -73.76396 20395 ft 395 kts 202°
2026-05-05 23:05 42.81445 -73.77491 20144 ft 390 kts 202°
2026-05-05 23:05 42.78837 -73.78592 19899 ft 394 kts 202°
2026-05-05 23:06 42.76205 -73.79700 19652 ft 397 kts 202°
2026-05-05 23:06 42.73579 -73.80810 19397 ft 393 kts 202°
2026-05-05 23:06 42.70984 -73.81956 19141 ft 389 kts 203°
2026-05-05 23:06 42.68428 -73.83108 18908 ft 386 kts 203°
2026-05-05 23:07 42.65887 -73.84260 18664 ft 383 kts 203°
2026-05-05 23:07 42.63360 -73.85403 18430 ft 382 kts 203°
2026-05-05 23:07 42.60878 -73.86523 18192 ft 381 kts 203°
2026-05-05 23:07 42.58367 -73.87652 17946 ft 380 kts 203°
2026-05-05 23:08 42.55867 -73.88772 17794 ft 376 kts 203°
2026-05-05 23:08 42.53379 -73.89884 17560 ft 376 kts 203°
2026-05-05 23:08 42.50895 -73.90994 17326 ft 376 kts 203°
2026-05-05 23:08 42.48405 -73.92107 17086 ft 376 kts 203°
2026-05-05 23:09 42.45934 -73.93210 16846 ft 376 kts 203°
2026-05-05 23:09 42.43475 -73.94305 16606 ft 376 kts 203°
2026-05-05 23:09 42.40995 -73.95409 16389 ft 375 kts 203°
2026-05-05 23:09 42.38519 -73.96510 16141 ft 374 kts 203°
2026-05-05 23:10 42.36041 -73.97611 15895 ft 373 kts 203°
2026-05-05 23:10 42.33586 -73.98701 15687 ft 371 kts 203°
2026-05-05 23:10 42.31135 -73.99789 15444 ft 370 kts 203°
2026-05-05 23:10 42.28689 -74.00874 15214 ft 369 kts 203°
2026-05-05 23:11 42.26245 -74.01957 14994 ft 368 kts 202°
2026-05-05 23:11 42.23812 -74.03034 14754 ft 368 kts 202°
2026-05-05 23:11 42.21383 -74.04107 14528 ft 367 kts 202°
2026-05-05 23:11 42.18994 -74.05162 14307 ft 365 kts 202°
2026-05-05 23:12 42.16582 -74.06228 14067 ft 364 kts 202°
2026-05-05 23:12 42.14180 -74.07289 13855 ft 363 kts 203°
2026-05-05 23:12 42.11781 -74.08348 13635 ft 362 kts 203°
2026-05-05 23:12 42.09386 -74.09403 13373 ft 361 kts 202°
2026-05-05 23:13 42.07001 -74.10453 13121 ft 359 kts 202°
2026-05-05 23:13 42.04672 -74.11475 12917 ft 355 kts 202°
2026-05-05 23:13 42.02332 -74.12501 12681 ft 352 kts 202°
2026-05-05 23:13 42.00013 -74.13519 12459 ft 349 kts 202°
2026-05-05 23:14 41.97716 -74.14526 12250 ft 346 kts 202°
2026-05-05 23:14 41.95437 -74.15524 12036 ft 343 kts 202°
2026-05-05 23:14 41.93172 -74.16517 11830 ft 342 kts 202°
2026-05-05 23:14 41.90918 -74.17504 11604 ft 341 kts 202°
2026-05-05 23:15 41.88659 -74.18491 11393 ft 340 kts 202°
2026-05-05 23:15 41.86412 -74.19473 11186 ft 340 kts 202°
2026-05-05 23:15 41.84191 -74.20443 10972 ft 339 kts 202°
2026-05-05 23:15 41.81953 -74.21418 10791 ft 335 kts 202°
2026-05-05 23:16 41.79775 -74.22365 10560 ft 324 kts 202°
2026-05-05 23:16 41.77663 -74.23283 10362 ft 314 kts 202°
2026-05-05 23:16 41.75616 -74.24175 10169 ft 304 kts 202°
2026-05-05 23:16 41.73636 -74.25038 9990 ft 295 kts 202°
2026-05-05 23:17 41.71724 -74.25870 9889 ft 282 kts 203°
2026-05-05 23:17 41.69877 -74.26672 9646 ft 276 kts 203°
2026-05-05 23:17 41.68086 -74.27450 9470 ft 267 kts 203°
2026-05-05 23:17 41.66331 -74.28213 9291 ft 263 kts 203°
2026-05-05 23:18 41.64602 -74.28965 9113 ft 261 kts 203°
2026-05-05 23:18 41.62896 -74.29707 8976 ft 261 kts 203°
2026-05-05 23:18 41.61168 -74.30457 8790 ft 261 kts 203°
2026-05-05 23:18 41.59434 -74.31210 8639 ft 261 kts 203°
2026-05-05 23:19 41.57708 -74.31957 8468 ft 261 kts 202°
2026-05-05 23:19 41.55980 -74.32704 8306 ft 261 kts 202°
2026-05-05 23:19 41.54271 -74.33444 8151 ft 262 kts 202°
2026-05-05 23:19 41.52537 -74.34193 7969 ft 262 kts 202°
2026-05-05 23:20 41.50807 -74.34941 7819 ft 261 kts 202°
2026-05-05 23:20 41.49076 -74.35687 7651 ft 260 kts 203°
2026-05-05 23:20 41.47358 -74.36428 7478 ft 258 kts 202°
2026-05-05 23:20 41.45660 -74.37160 7324 ft 255 kts 202°
2026-05-05 23:21 41.43976 -74.37886 7165 ft 254 kts 203°
2026-05-05 23:21 41.42305 -74.38605 7055 ft 250 kts 203°
2026-05-05 23:21 41.40657 -74.39315 7006 ft 247 kts 202°
2026-05-05 23:21 41.39024 -74.40020 6966 ft 248 kts 202°
2026-05-05 23:22 41.37394 -74.40722 6986 ft 251 kts 202°
2026-05-05 23:22 41.35731 -74.41437 6977 ft 252 kts 202°
2026-05-05 23:22 41.34058 -74.42156 6979 ft 252 kts 202°
2026-05-05 23:22 41.32390 -74.42872 6981 ft 251 kts 202°
2026-05-05 23:23 41.30727 -74.43586 6982 ft 251 kts 202°
2026-05-05 23:23 41.29068 -74.44297 6995 ft 251 kts 202°
2026-05-05 23:23 41.27401 -74.45013 6983 ft 251 kts 202°
2026-05-05 23:23 41.25738 -74.45724 6997 ft 250 kts 202°
2026-05-05 23:24 41.24102 -74.46423 6998 ft 251 kts 202°
2026-05-05 23:24 41.22440 -74.47134 6997 ft 251 kts 202°
2026-05-05 23:24 41.20775 -74.47846 6994 ft 252 kts 202°
2026-05-05 23:24 41.19107 -74.48560 6996 ft 252 kts 201°
2026-05-05 23:25 41.17440 -74.49274 7010 ft 251 kts 203°
2026-05-05 23:25 41.15768 -74.49987 6993 ft 253 kts 202°
2026-05-05 23:25 41.14657 -74.50461 6997 ft 252 kts 202°
2026-05-05 23:25 41.12995 -74.51165 6996 ft 249 kts 200°
2026-05-05 23:26 41.11264 -74.51322 6844 ft 259 kts 174°
2026-05-05 23:26 41.09588 -74.50303 6655 ft 275 kts 146°
2026-05-05 23:26 41.08372 -74.48308 6486 ft 283 kts 123°
2026-05-05 23:26 41.07236 -74.45200 6234 ft 282 kts 118°
2026-05-05 23:27 41.06699 -74.43598 6103 ft 281 kts 118°
2026-05-05 23:27 41.05660 -74.40460 5841 ft 280 kts 118°
2026-05-05 23:27 41.05137 -74.38867 5703 ft 279 kts 118°
2026-05-05 23:27 41.04380 -74.36542 5562 ft 276 kts 117°
2026-05-05 23:28 41.03627 -74.34212 5415 ft 273 kts 118°
2026-05-05 23:28 41.02818 -74.31974 5286 ft 267 kts 127°
2026-05-05 23:28 41.01784 -74.29937 5172 ft 267 kts 131°
2026-05-05 23:28 41.00699 -74.27929 5051 ft 270 kts 131°
2026-05-05 23:29 40.99614 -74.25889 4947 ft 272 kts 130°
2026-05-05 23:29 40.98536 -74.23814 4827 ft 274 kts 129°
2026-05-05 23:29 40.97480 -74.21739 4724 ft 269 kts 129°
2026-05-05 23:29 40.96446 -74.19697 4570 ft 264 kts 129°
2026-05-05 23:30 40.95452 -74.17729 4429 ft 258 kts 129°
2026-05-05 23:30 40.94461 -74.15783 4267 ft 249 kts 132°
2026-05-05 23:30 40.93239 -74.14350 4087 ft 224 kts 158°
2026-05-05 23:30 40.91882 -74.13389 3970 ft 220 kts 158°
2026-05-05 23:31 40.90579 -74.12428 3848 ft 218 kts 157°
2026-05-05 23:31 40.89252 -74.11442 3716 ft 218 kts 158°
2026-05-05 23:31 40.87930 -74.10458 3582 ft 219 kts 158°
2026-05-05 23:31 40.86603 -74.09468 3465 ft 219 kts 158°
2026-05-05 23:32 40.85293 -74.08493 3341 ft 219 kts 157°
2026-05-05 23:32 40.83913 -74.07843 3066 ft 205 kts 184°
2026-05-05 23:32 40.82592 -74.08240 2831 ft 190 kts 205°
2026-05-05 23:32 40.81356 -74.08836 2562 ft 187 kts 204°
2026-05-05 23:33 40.80174 -74.09507 2359 ft 182 kts 208°
2026-05-05 23:33 40.79055 -74.10215 2089 ft 174 kts 208°
2026-05-05 23:33 40.77992 -74.10896 1729 ft 163 kts 207°
2026-05-05 23:33 40.77003 -74.11530 1579 ft 153 kts 207°
2026-05-05 23:34 40.76091 -74.12111 1326 ft 138 kts 207°
2026-05-05 23:34 40.75331 -74.12598 1182 ft 126 kts 205°
2026-05-05 23:34 40.74987 -74.12819 1138 ft 132 kts 206°
2026-05-05 23:34 40.74406 -74.13188 980 ft 128 kts 208°
2026-05-05 23:35 40.73645 -74.13683 801 ft 119 kts 206°
2026-05-05 23:35 40.72908 -74.14135 662 ft 125 kts 206°
2026-05-05 23:35 40.72157 -74.14611 582 ft 116 kts 209°
2026-05-05 23:35 40.71416 -74.15087 422 ft 122 kts 210°
2026-05-05 23:36 40.70626 -74.15595 268 ft 130 kts 208°
2026-05-05 23:36 40.69838 -74.16099 66 ft 123 kts 208°
2026-05-05 23:36 40.69236 -74.16487 29 ft 102 kts 204°
2026-05-05 23:36 40.68762 -74.16788 31 ft 49 kts 205°
2026-05-05 23:37 40.68591 -74.16903 26 ft 24 kts 219°
2026-05-05 23:37 40.68498 -74.17067 27 ft 12 kts 236°
2026-05-05 23:37 40.68480 -74.17142 27 ft 7 kts 290°
2026-05-05 23:37 40.68518 -74.17153 27 ft 11 kts
2026-05-05 23:38 40.68590 -74.17117 27 ft 7 kts 13°
2026-05-05 23:38 40.68629 -74.17160 27 ft 13 kts 297°
2026-05-05 23:38 40.68672 -74.17280 28 ft 12 kts 295°
2026-05-05 23:38 40.68706 -74.17378 27 ft 12 kts 295°
2026-05-05 23:39 40.68744 -74.17442 27 ft 8 kts 343°
2026-05-05 23:39 40.68804 -74.17420 26 ft 13 kts 24°
2026-05-05 23:39 40.68899 -74.17361 27 ft 15 kts 26°
2026-05-05 23:39 40.68992 -74.17301 26 ft 15 kts 25°
2026-05-05 23:40 40.69088 -74.17240 26 ft 15 kts 25°
2026-05-05 23:40 40.69182 -74.17181 26 ft 15 kts 25°
2026-05-05 23:40 40.69268 -74.17126 26 ft 15 kts 26°
2026-05-05 23:40 40.69355 -74.17080 26 ft 13 kts 13°
2026-05-05 23:41 40.69441 -74.17069 26 ft 13 kts
2026-05-05 23:41 40.69530 -74.17082 26 ft 13 kts 350°
2026-05-05 23:41 40.69615 -74.17114 27 ft 13 kts 338°
2026-05-05 23:41 40.69694 -74.17166 27 ft 13 kts 328°
2026-05-05 23:42 40.69764 -74.17237 27 ft 13 kts 318°
2026-05-05 23:42 40.69827 -74.17319 27 ft 13 kts 311°
2026-05-05 23:42 40.69876 -74.17415 27 ft 13 kts 296°
2026-05-05 23:42 40.69899 -74.17523 27 ft 10 kts 278°
2026-05-05 23:43 40.69914 -74.17614 27 ft 10 kts 299°
2026-05-05 23:43 40.69965 -74.17678 27 ft 10 kts 310°
2026-05-05 23:43 40.69985 -74.17766 27 ft 10 kts 274°
2026-05-05 23:43 40.69991 -74.17860 27 ft 10 kts 275°
2026-05-05 23:44 40.69998 -74.17952 27 ft 10 kts 275°
2026-05-05 23:44 40.70003 -74.18025 27 ft 6 kts 275°
2026-05-05 23:44 40.69991 -74.18061 26 ft 4 kts 212°
2026-05-05 23:44 40.69962 -74.18061 27 ft 4 kts 167°
2026-05-05 23:45 40.69935 -74.18047 27 ft 2 kts 158°
2026-05-05 23:45 40.69926 -74.18042 27 ft 0 kts 158°